Time,TemperatureF,DewpointF,PressureIn,WindDirection,WindDirectionDegrees,WindSpeedMPH,WindSpeedGustMPH,Humidity,HourlyPrecipIn,Conditions,Clouds,dailyrainin,SolarRadiationWatts/m^2,SoftwareType,DateUTC
2013-04-29 00:04:00,61.4,53.4,29.69,South,173,8.0,8.0,75,0.00,,,0.00,0,Wunderground v.1.15,2013-04-29 05:04:00,
2013-04-29 00:05:00,61.4,53.4,29.69,SSE,161,6.0,8.0,75,0.00,,,0.00,0,Wunderground v.1.15,2013-04-29 05:05:00,
2013-04-29 00:08:00,61.3,53.3,29.69,SSE,165,6.0,8.0,75,0.00,,,0.00,0,Wunderground v.1.15,2013-04-29 05:08:00,
2013-04-29 00:11:00,61.3,53.7,29.70,SSE,163,6.0,7.0,76,0.00,,,0.00,0,Wunderground v.1.15,2013-04-29 05:11:00,
2013-04-29 00:14:00,61.3,53.7,29.70,SSE,154,6.0,8.0,76,0.00,,,0.00,0,Wunderground v.1.15,2013-04-29 05:14:00,
2013-04-29 00:15:00,61.3,53.7,29.70,SSE,164,8.0,8.0,76,0.00,,,0.00,0,Wunderground v.1.15,2013-04-29 05:15:00,
2013-04-29 00:17:00,61.3,53.7,29.70,SSE,163,9.0,9.0,76,0.00,,,0.00,0,Wunderground v.1.15,2013-04-29 05:17:00,
2013-04-29 00:18:00,61.3,53.7,29.70,SE,140,6.0,9.0,76,0.00,,,0.00,0,Wunderground v.1.15,2013-04-29 05:18:00,
2013-04-29 00:19:00,61.3,53.7,29.70,South,173,7.0,9.0,76,0.00,,,0.00,0,Wunderground v.1.15,2013-04-29 05:19:00,
2013-04-29 00:21:00,61.2,53.6,29.70,SSE,157,7.0,8.0,76,0.00,,,0.00,0,Wunderground v.1.15,2013-04-29 05:21:00,
2013-04-29 00:23:00,61.1,53.5,29.70,South,173,12.0,12.0,76,0.00,,,0.00,0,Wunderground v.1.15,2013-04-29 05:23:00,
2013-04-29 00:25:00,61.1,53.5,29.70,South,169,9.0,12.0,76,0.00,,,0.00,0,Wunderground v.1.15,2013-04-29 05:25:00,
2013-04-29 00:27:00,61.0,53.4,29.70,SSE,151,10.0,12.0,76,0.00,,,0.00,0,Wunderground v.1.15,2013-04-29 05:27:00,
2013-04-29 00:29:00,61.1,53.5,29.70,SSE,167,6.0,12.0,76,0.00,,,0.00,0,Wunderground v.1.15,2013-04-29 05:29:00,
2013-04-29 00:31:00,61.0,53.4,29.70,SSE,167,7.0,10.0,76,0.00,,,0.00,0,Wunderground v.1.15,2013-04-29 05:31:00,
2013-04-29 00:32:00,61.0,53.4,29.70,SSE,161,7.0,10.0,76,0.00,,,0.00,0,Wunderground v.1.15,2013-04-29 05:32:00,
2013-04-29 00:35:00,61.0,53.4,29.70,SSE,168,5.0,10.0,76,0.00,,,0.00,0,Wunderground v.1.15,2013-04-29 05:35:00,
2013-04-29 00:36:00,60.9,53.6,29.70,SSE,165,10.0,10.0,77,0.00,,,0.00,0,Wunderground v.1.15,2013-04-29 05:36:00,
2013-04-29 00:37:00,61.0,53.7,29.70,South,169,6.0,10.0,77,0.00,,,0.00,0,Wunderground v.1.15,2013-04-29 05:37:00,
2013-04-29 00:38:00,60.9,53.3,29.70,SSE,165,7.0,10.0,76,0.00,,,0.00,0,Wunderground v.1.15,2013-04-29 05:38:00,
2013-04-29 00:39:00,60.9,53.6,29.70,SSE,160,6.0,10.0,77,0.00,,,0.00,0,Wunderground v.1.15,2013-04-29 05:39:00,
2013-04-29 00:40:00,60.8,53.5,29.70,SSE,153,6.0,8.0,77,0.00,,,0.00,0,Wunderground v.1.15,2013-04-29 05:40:00,
2013-04-29 00:44:00,60.6,53.3,29.70,SSE,160,7.0,8.0,77,0.00,,,0.00,0,Wunderground v.1.15,2013-04-29 05:44:00,
2013-04-29 00:46:00,60.5,53.3,29.69,South,173,8.0,8.0,77,0.00,,,0.00,0,Wunderground v.1.15,2013-04-29 05:46:00,
2013-04-29 00:47:00,60.4,53.2,29.69,SSE,168,7.0,8.0,77,0.00,,,0.00,0,Wunderground v.1.15,2013-04-29 05:47:00,
2013-04-29 00:49:00,60.4,53.2,29.70,South,173,8.0,8.0,77,0.00,,,0.00,0,Wunderground v.1.15,2013-04-29 05:49:00,
2013-04-29 00:53:00,60.3,53.1,29.70,SSW,196,7.0,10.0,77,0.00,,,0.00,0,Wunderground v.1.15,2013-04-29 05:53:00,
2013-04-29 00:54:00,60.3,53.4,29.70,South,173,6.0,10.0,78,0.00,,,0.00,0,Wunderground v.1.15,2013-04-29 05:54:00,
2013-04-29 00:59:00,60.2,53.3,29.70,SSE,166,5.0,10.0,78,0.00,,,0.00,0,Wunderground v.1.15,2013-04-29 05:59:00,
2013-04-29 01:00:00,60.1,53.2,29.70,South,171,6.0,7.0,78,0.00,,,0.00,0,Wunderground v.1.15,2013-04-29 06:00:00,
2013-04-29 01:02:00,60.1,53.2,29.70,SSE,165,7.0,7.0,78,0.00,,,0.00,0,Wunderground v.1.15,2013-04-29 06:02:00,
2013-04-29 01:03:00,60.0,53.1,29.70,SSE,163,5.0,7.0,78,0.00,,,0.00,0,Wunderground v.1.15,2013-04-29 06:03:00,
2013-04-29 01:05:00,60.0,53.1,29.70,SSE,156,7.0,7.0,78,0.00,,,0.00,0,Wunderground v.1.15,2013-04-29 06:05:00,
2013-04-29 01:08:00,59.9,53.0,29.70,SSE,165,6.0,7.0,78,0.00,,,0.00,0,Wunderground v.1.15,2013-04-29 06:08:00,
2013-04-29 01:11:00,59.8,52.9,29.70,South,169,6.0,7.0,78,0.00,,,0.00,0,Wunderground v.1.15,2013-04-29 06:11:00,
2013-04-29 01:13:00,59.6,52.7,29.70,SSE,168,6.0,7.0,78,0.00,,,0.00,0,Wunderground v.1.15,2013-04-29 06:13:00,
2013-04-29 01:14:00,59.6,53.1,29.70,South,169,8.0,8.0,79,0.00,,,0.00,0,Wunderground v.1.15,2013-04-29 06:14:00,
2013-04-29 01:15:00,59.5,53.0,29.70,South,170,4.0,8.0,79,0.00,,,0.00,0,Wunderground v.1.15,2013-04-29 06:15:00,
2013-04-29 01:19:00,59.3,52.8,29.70,SSE,163,4.0,8.0,79,0.00,,,0.00,0,Wunderground v.1.15,2013-04-29 06:19:00,
2013-04-29 01:20:00,59.2,52.7,29.70,SSE,167,5.0,5.0,79,0.00,,,0.00,0,Wunderground v.1.15,2013-04-29 06:20:00,
2013-04-29 01:22:00,59.0,52.5,29.70,SSE,157,5.0,5.0,79,0.00,,,0.00,0,Wunderground v.1.15,2013-04-29 06:22:00,
2013-04-29 01:23:00,58.9,52.7,29.70,South,171,7.0,7.0,80,0.00,,,0.00,0,Wunderground v.1.15,2013-04-29 06:23:00,
2013-04-29 01:24:00,58.9,52.7,29.70,SSE,162,4.0,7.0,80,0.00,,,0.00,0,Wunderground v.1.15,2013-04-29 06:24:00,
2013-04-29 01:27:00,58.8,52.6,29.70,SSE,162,5.0,7.0,80,0.00,,,0.00,0,Wunderground v.1.15,2013-04-29 06:27:00,
2013-04-29 01:28:00,58.7,52.5,29.70,SSE,163,5.0,7.0,80,0.00,,,0.00,0,Wunderground v.1.15,2013-04-29 06:28:00,
2013-04-29 01:30:00,58.6,52.4,29.70,SSE,165,5.0,5.0,80,0.00,,,0.00,0,Wunderground v.1.15,2013-04-29 06:30:00,
2013-04-29 01:31:00,58.6,52.8,29.70,SSE,162,4.0,5.0,81,0.00,,,0.00,0,Wunderground v.1.15,2013-04-29 06:31:00,
2013-04-29 01:34:00,58.5,52.7,29.69,SSE,158,4.0,7.0,81,0.00,,,0.00,0,Wunderground v.1.15,2013-04-29 06:34:00,
2013-04-29 01:37:00,58.6,52.8,29.70,SSE,153,8.0,8.0,81,0.00,,,0.00,0,Wunderground v.1.15,2013-04-29 06:37:00,
2013-04-29 01:39:00,58.6,52.8,29.70,SSE,154,5.0,8.0,81,0.00,,,0.00,0,Wunderground v.1.15,2013-04-29 06:39:00,
2013-04-29 01:43:00,58.8,53.0,29.69,SSE,167,5.0,9.0,81,0.00,,,0.00,0,Wunderground v.1.15,2013-04-29 06:43:00,
2013-04-29 01:46:00,58.8,52.6,29.69,SSE,160,6.0,9.0,80,0.00,,,0.00,0,Wunderground v.1.15,2013-04-29 06:46:00,
2013-04-29 01:47:00,58.8,52.6,29.69,SSE,160,6.0,9.0,80,0.00,,,0.00,0,Wunderground v.1.15,2013-04-29 06:47:00,
2013-04-29 01:50:00,58.8,52.6,29.69,South,169,5.0,6.0,80,0.00,,,0.00,0,Wunderground v.1.15,2013-04-29 06:50:00,
2013-04-29 01:52:00,58.7,52.5,29.69,SSE,163,5.0,6.0,80,0.00,,,0.00,0,Wunderground v.1.15,2013-04-29 06:52:00,
2013-04-29 01:55:00,58.5,52.7,29.69,South,169,9.0,9.0,81,0.00,,,0.00,0,Wunderground v.1.15,2013-04-29 06:55:00,
2013-04-29 01:57:00,58.4,52.6,29.69,SSE,161,6.0,9.0,81,0.00,,,0.00,0,Wunderground v.1.15,2013-04-29 06:57:00,
2013-04-29 01:58:00,58.3,52.5,29.69,SSE,164,6.0,9.0,81,0.00,,,0.00,0,Wunderground v.1.15,2013-04-29 06:58:00,
2013-04-29 02:00:00,58.1,52.3,29.69,SSE,163,5.0,5.0,81,0.00,,,0.00,0,Wunderground v.1.15,2013-04-29 07:00:00,
2013-04-29 02:01:00,58.0,52.2,29.69,SSE,159,5.0,5.0,81,0.00,,,0.00,0,Wunderground v.1.15,2013-04-29 07:01:00,
2013-04-29 02:02:00,57.9,52.4,29.69,South,176,6.0,6.0,82,0.00,,,0.00,0,Wunderground v.1.15,2013-04-29 07:02:00,
2013-04-29 02:04:00,57.8,52.3,29.69,SSE,166,5.0,6.0,82,0.00,,,0.00,0,Wunderground v.1.15,2013-04-29 07:04:00,
2013-04-29 02:06:00,57.7,52.2,29.69,SSE,166,5.0,6.0,82,0.00,,,0.00,0,Wunderground v.1.15,2013-04-29 07:06:00,
2013-04-29 02:07:00,57.7,52.2,29.69,SSE,165,6.0,6.0,82,0.00,,,0.00,0,Wunderground v.1.15,2013-04-29 07:07:00,
2013-04-29 02:08:00,57.6,52.1,29.69,SSE,163,4.0,6.0,82,0.00,,,0.00,0,Wunderground v.1.15,2013-04-29 07:08:00,
2013-04-29 02:09:00,57.6,52.1,29.69,SSE,165,5.0,6.0,82,0.00,,,0.00,0,Wunderground v.1.15,2013-04-29 07:09:00,
2013-04-29 02:10:00,57.6,52.5,29.69,SSE,163,5.0,5.0,83,0.00,,,0.00,0,Wunderground v.1.15,2013-04-29 07:10:00,
2013-04-29 02:11:00,57.6,52.5,29.69,SSE,159,5.0,6.0,83,0.00,,,0.00,0,Wunderground v.1.15,2013-04-29 07:11:00,
2013-04-29 02:13:00,57.6,52.5,29.69,SSE,167,5.0,6.0,83,0.00,,,0.00,0,Wunderground v.1.15,2013-04-29 07:13:00,
2013-04-29 02:14:00,57.5,52.4,29.69,SSE,167,3.0,6.0,83,0.00,,,0.00,0,Wunderground v.1.15,2013-04-29 07:14:00,
2013-04-29 02:16:00,57.5,52.4,29.69,South,171,5.0,6.0,83,0.00,,,0.00,0,Wunderground v.1.15,2013-04-29 07:16:00,
2013-04-29 02:18:00,57.5,52.4,29.69,South,171,5.0,6.0,83,0.00,,,0.00,0,Wunderground v.1.15,2013-04-29 07:18:00,
2013-04-29 02:19:00,57.5,52.4,29.69,SSE,164,5.0,6.0,83,0.00,,,0.00,0,Wunderground v.1.15,2013-04-29 07:19:00,
2013-04-29 02:20:00,57.5,52.4,29.69,SSE,161,5.0,6.0,83,0.00,,,0.00,0,Wunderground v.1.15,2013-04-29 07:20:00,
2013-04-29 02:22:00,57.4,52.3,29.69,SSE,165,4.0,6.0,83,0.00,,,0.00,0,Wunderground v.1.15,2013-04-29 07:22:00,
2013-04-29 02:23:00,57.3,52.2,29.69,SSE,168,3.0,6.0,83,0.00,,,0.00,0,Wunderground v.1.15,2013-04-29 07:23:00,
2013-04-29 02:24:00,57.3,52.2,29.69,SSE,167,5.0,6.0,83,0.00,,,0.00,0,Wunderground v.1.15,2013-04-29 07:24:00,
2013-04-29 02:25:00,57.3,52.2,29.69,SSE,167,4.0,6.0,83,0.00,,,0.00,0,Wunderground v.1.15,2013-04-29 07:25:00,
2013-04-29 02:27:00,57.3,52.2,29.69,SSE,163,5.0,6.0,83,0.00,,,0.00,0,Wunderground v.1.15,2013-04-29 07:27:00,
2013-04-29 02:28:00,57.3,52.2,29.69,SSE,166,4.0,6.0,83,0.00,,,0.00,0,Wunderground v.1.15,2013-04-29 07:28:00,
2013-04-29 02:29:00,57.3,52.2,29.69,SSE,167,4.0,6.0,83,0.00,,,0.00,0,Wunderground v.1.15,2013-04-29 07:29:00,
2013-04-29 02:30:00,57.2,52.4,29.69,SSE,167,4.0,5.0,84,0.00,,,0.00,0,Wunderground v.1.15,2013-04-29 07:30:00,
2013-04-29 02:31:00,57.2,52.4,29.69,SSE,165,4.0,5.0,84,0.00,,,0.00,0,Wunderground v.1.15,2013-04-29 07:31:00,
2013-04-29 02:32:00,57.2,52.4,29.69,SSE,167,4.0,5.0,84,0.00,,,0.00,0,Wunderground v.1.15,2013-04-29 07:32:00,
2013-04-29 02:34:00,57.1,52.3,29.69,South,172,3.0,5.0,84,0.00,,,0.00,0,Wunderground v.1.15,2013-04-29 07:34:00,
2013-04-29 02:35:00,57.1,52.3,29.69,South,171,4.0,6.0,84,0.00,,,0.00,0,Wunderground v.1.15,2013-04-29 07:35:00,
2013-04-29 02:36:00,57.1,52.3,29.69,SSE,166,3.0,6.0,84,0.00,,,0.00,0,Wunderground v.1.15,2013-04-29 07:36:00,
2013-04-29 02:37:00,57.1,52.3,29.69,South,169,4.0,6.0,84,0.00,,,0.00,0,Wunderground v.1.15,2013-04-29 07:37:00,
2013-04-29 02:40:00,57.1,52.3,29.69,South,169,5.0,5.0,84,0.00,,,0.00,0,Wunderground v.1.15,2013-04-29 07:40:00,
2013-04-29 02:41:00,57.1,52.3,29.69,SSE,163,5.0,6.0,84,0.00,,,0.00,0,Wunderground v.1.15,2013-04-29 07:41:00,
2013-04-29 02:43:00,57.2,52.4,29.69,SSE,164,3.0,6.0,84,0.00,,,0.00,0,Wunderground v.1.15,2013-04-29 07:43:00,
2013-04-29 02:46:00,57.3,52.5,29.69,South,171,2.0,6.0,84,0.00,,,0.00,0,Wunderground v.1.15,2013-04-29 07:46:00,
2013-04-29 02:47:00,57.3,52.5,29.69,South,173,3.0,6.0,84,0.00,,,0.00,0,Wunderground v.1.15,2013-04-29 07:47:00,
2013-04-29 02:48:00,57.3,52.5,29.69,South,174,5.0,6.0,84,0.00,,,0.00,0,Wunderground v.1.15,2013-04-29 07:48:00,
2013-04-29 02:49:00,57.2,52.4,29.69,South,172,3.0,6.0,84,0.00,,,0.00,0,Wunderground v.1.15,2013-04-29 07:49:00,
2013-04-29 02:52:00,57.1,52.3,29.69,SSE,168,3.0,5.0,84,0.00,,,0.00,0,Wunderground v.1.15,2013-04-29 07:52:00,
2013-04-29 02:53:00,57.0,52.2,29.69,South,171,3.0,5.0,84,0.00,,,0.00,0,Wunderground v.1.15,2013-04-29 07:53:00,
2013-04-29 02:55:00,57.0,52.2,29.68,South,173,4.0,5.0,84,0.00,,,0.00,0,Wunderground v.1.15,2013-04-29 07:55:00,
2013-04-29 02:56:00,56.9,52.1,29.68,South,176,5.0,5.0,84,0.00,,,0.00,0,Wunderground v.1.15,2013-04-29 07:56:00,
2013-04-29 02:58:00,56.8,52.3,29.68,South,170,4.0,6.0,85,0.00,,,0.00,0,Wunderground v.1.15,2013-04-29 07:58:00,
2013-04-29 03:00:00,56.8,52.3,29.68,South,173,3.0,6.0,85,0.00,,,0.00,0,Wunderground v.1.15,2013-04-29 08:00:00,
2013-04-29 03:01:00,56.7,52.2,29.68,South,170,3.0,4.0,85,0.00,,,0.00,0,Wunderground v.1.15,2013-04-29 08:01:00,
2013-04-29 03:02:00,56.7,52.2,29.68,South,174,4.0,4.0,85,0.00,,,0.00,0,Wunderground v.1.15,2013-04-29 08:02:00,
2013-04-29 03:03:00,56.7,52.2,29.68,South,174,3.0,4.0,85,0.00,,,0.00,0,Wunderground v.1.15,2013-04-29 08:03:00,
2013-04-29 03:04:00,56.6,52.1,29.68,South,174,4.0,4.0,85,0.00,,,0.00,0,Wunderground v.1.15,2013-04-29 08:04:00,
2013-04-29 03:05:00,56.6,52.1,29.68,South,174,4.0,4.0,85,0.00,,,0.00,0,Wunderground v.1.15,2013-04-29 08:05:00,
2013-04-29 03:08:00,56.4,51.9,29.68,South,171,4.0,4.0,85,0.00,,,0.00,0,Wunderground v.1.15,2013-04-29 08:08:00,
2013-04-29 03:09:00,56.4,51.9,29.68,South,173,3.0,4.0,85,0.00,,,0.00,0,Wunderground v.1.15,2013-04-29 08:09:00,
2013-04-29 03:10:00,56.3,51.8,29.68,South,173,3.0,4.0,85,0.00,,,0.00,0,Wunderground v.1.15,2013-04-29 08:10:00,
2013-04-29 03:11:00,56.3,51.8,29.68,SSE,168,3.0,4.0,85,0.00,,,0.00,0,Wunderground v.1.15,2013-04-29 08:11:00,
2013-04-29 03:14:00,56.3,52.2,29.68,South,173,3.0,5.0,86,0.00,,,0.00,0,Wunderground v.1.15,2013-04-29 08:14:00,
2013-04-29 03:15:00,56.3,52.2,29.68,SSE,165,4.0,5.0,86,0.00,,,0.00,0,Wunderground v.1.15,2013-04-29 08:15:00,
2013-04-29 03:16:00,56.3,52.2,29.68,SSE,165,4.0,5.0,86,0.00,,,0.00,0,Wunderground v.1.15,2013-04-29 08:16:00,
2013-04-29 03:17:00,56.3,52.2,29.68,SSE,161,4.0,5.0,86,0.00,,,0.00,0,Wunderground v.1.15,2013-04-29 08:17:00,
2013-04-29 03:19:00,56.2,52.1,29.68,SSE,163,4.0,5.0,86,0.00,,,0.00,0,Wunderground v.1.15,2013-04-29 08:19:00,
2013-04-29 03:20:00,56.2,52.1,29.68,SSE,161,3.0,5.0,86,0.00,,,0.00,0,Wunderground v.1.15,2013-04-29 08:20:00,
2013-04-29 03:22:00,56.2,52.1,29.68,SSE,161,4.0,5.0,86,0.00,,,0.00,0,Wunderground v.1.15,2013-04-29 08:22:00,
2013-04-29 03:25:00,56.3,52.2,29.68,South,171,5.0,6.0,86,0.00,,,0.00,0,Wunderground v.1.15,2013-04-29 08:25:00,
2013-04-29 03:26:00,56.4,52.3,29.68,SSE,167,4.0,6.0,86,0.00,,,0.00,0,Wunderground v.1.15,2013-04-29 08:26:00,
2013-04-29 03:27:00,56.4,52.3,29.68,SSE,167,2.0,6.0,86,0.00,,,0.00,0,Wunderground v.1.15,2013-04-29 08:27:00,
2013-04-29 03:30:00,56.4,52.3,29.68,SSE,160,3.0,4.0,86,0.00,,,0.00,0,Wunderground v.1.15,2013-04-29 08:30:00,
2013-04-29 03:31:00,56.3,52.2,29.68,SSE,161,5.0,5.0,86,0.00,,,0.00,0,Wunderground v.1.15,2013-04-29 08:31:00,
2013-04-29 03:32:00,56.4,52.3,29.68,SSE,163,4.0,5.0,86,0.00,,,0.00,0,Wunderground v.1.15,2013-04-29 08:32:00,
2013-04-29 03:33:00,56.4,52.3,29.68,SSE,160,6.0,6.0,86,0.00,,,0.00,0,Wunderground v.1.15,2013-04-29 08:33:00,
2013-04-29 03:34:00,56.4,52.3,29.68,SSE,160,5.0,6.0,86,0.00,,,0.00,0,Wunderground v.1.15,2013-04-29 08:34:00,
2013-04-29 03:35:00,56.5,52.4,29.68,SSE,163,4.0,6.0,86,0.00,,,0.00,0,Wunderground v.1.15,2013-04-29 08:35:00,
2013-04-29 03:38:00,56.7,52.6,29.68,SSE,168,4.0,7.0,86,0.00,,,0.00,0,Wunderground v.1.15,2013-04-29 08:38:00,
2013-04-29 03:39:00,56.8,52.7,29.68,SSE,163,5.0,7.0,86,0.00,,,0.00,0,Wunderground v.1.15,2013-04-29 08:39:00,
2013-04-29 03:41:00,56.9,52.8,29.68,SSE,165,4.0,6.0,86,0.00,,,0.00,0,Wunderground v.1.15,2013-04-29 08:41:00,
2013-04-29 03:42:00,57.1,53.0,29.68,South,169,5.0,7.0,86,0.00,,,0.00,0,Wunderground v.1.15,2013-04-29 08:42:00,
2013-04-29 03:43:00,57.2,53.0,29.68,SSE,164,5.0,7.0,86,0.00,,,0.00,0,Wunderground v.1.15,2013-04-29 08:43:00,
2013-04-29 03:44:00,57.3,53.1,29.68,SSE,163,4.0,7.0,86,0.00,,,0.00,0,Wunderground v.1.15,2013-04-29 08:44:00,
2013-04-29 03:46:00,57.3,52.8,29.68,South,171,6.0,7.0,85,0.00,,,0.00,0,Wunderground v.1.15,2013-04-29 08:46:00,
2013-04-29 03:47:00,57.3,52.8,29.68,SSE,159,4.0,7.0,85,0.00,,,0.00,0,Wunderground v.1.15,2013-04-29 08:47:00,
2013-04-29 03:49:00,57.3,52.8,29.68,SSE,161,3.0,7.0,85,0.00,,,0.00,0,Wunderground v.1.15,2013-04-29 08:49:00,
2013-04-29 03:50:00,57.4,52.9,29.68,SSE,160,5.0,7.0,85,0.00,,,0.00,0,Wunderground v.1.15,2013-04-29 08:50:00,
2013-04-29 03:52:00,57.5,53.0,29.68,South,173,7.0,7.0,85,0.00,,,0.00,0,Wunderground v.1.15,2013-04-29 08:52:00,
2013-04-29 03:54:00,57.6,53.1,29.68,SSE,163,4.0,7.0,85,0.00,,,0.00,0,Wunderground v.1.15,2013-04-29 08:54:00,
2013-04-29 03:55:00,57.7,53.2,29.68,SSE,165,5.0,7.0,85,0.00,,,0.00,0,Wunderground v.1.15,2013-04-29 08:55:00,
2013-04-29 03:56:00,57.7,53.2,29.67,South,171,4.0,7.0,85,0.00,,,0.00,0,Wunderground v.1.15,2013-04-29 08:56:00,
2013-04-29 03:57:00,57.7,53.2,29.67,South,171,3.0,7.0,85,0.00,,,0.00,0,Wunderground v.1.15,2013-04-29 08:57:00,
2013-04-29 03:59:00,57.7,53.2,29.67,South,172,4.0,7.0,85,0.00,,,0.00,0,Wunderground v.1.15,2013-04-29 08:59:00,
2013-04-29 04:00:00,57.7,53.2,29.67,SSE,161,5.0,5.0,85,0.00,,,0.00,0,Wunderground v.1.15,2013-04-29 09:00:00,
2013-04-29 04:01:00,57.6,53.1,29.67,SSE,163,2.0,5.0,85,0.00,,,0.00,0,Wunderground v.1.15,2013-04-29 09:01:00,
2013-04-29 04:02:00,57.6,53.1,29.67,SSE,165,4.0,5.0,85,0.00,,,0.00,0,Wunderground v.1.15,2013-04-29 09:02:00,
2013-04-29 04:03:00,57.6,53.1,29.67,SSE,167,3.0,5.0,85,0.00,,,0.00,0,Wunderground v.1.15,2013-04-29 09:03:00,
2013-04-29 04:06:00,57.6,53.1,29.67,SSE,159,6.0,7.0,85,0.00,,,0.00,0,Wunderground v.1.15,2013-04-29 09:06:00,
2013-04-29 04:08:00,57.7,53.2,29.67,SSE,163,5.0,7.0,85,0.00,,,0.00,0,Wunderground v.1.15,2013-04-29 09:08:00,
2013-04-29 04:12:00,57.9,53.4,29.67,SSE,167,8.0,8.0,85,0.00,,,0.00,0,Wunderground v.1.15,2013-04-29 09:12:00,
2013-04-29 04:13:00,58.0,53.5,29.67,SSE,161,5.0,8.0,85,0.00,,,0.00,0,Wunderground v.1.15,2013-04-29 09:13:00,
2013-04-29 04:14:00,58.0,53.5,29.67,SSE,167,7.0,9.0,85,0.00,,,0.00,0,Wunderground v.1.15,2013-04-29 09:14:00,
2013-04-29 04:15:00,58.1,53.6,29.67,SSE,160,5.0,9.0,85,0.00,,,0.00,0,Wunderground v.1.15,2013-04-29 09:15:00,
2013-04-29 04:17:00,58.1,53.3,29.67,South,173,7.0,9.0,84,0.00,,,0.00,0,Wunderground v.1.15,2013-04-29 09:17:00,
2013-04-29 04:18:00,58.1,53.3,29.67,South,169,6.0,9.0,84,0.00,,,0.00,0,Wunderground v.1.15,2013-04-29 09:18:00,
2013-04-29 04:20:00,58.1,53.3,29.67,SSE,167,8.0,9.0,84,0.00,,,0.00,0,Wunderground v.1.15,2013-04-29 09:20:00,
2013-04-29 04:22:00,58.2,53.4,29.67,SSE,168,6.0,9.0,84,0.00,,,0.00,0,Wunderground v.1.15,2013-04-29 09:22:00,
2013-04-29 04:24:00,58.1,53.3,29.67,SSE,167,6.0,9.0,84,0.00,,,0.00,0,Wunderground v.1.15,2013-04-29 09:24:00,
2013-04-29 04:25:00,58.1,53.3,29.67,South,173,4.0,9.0,84,0.00,,,0.00,0,Wunderground v.1.15,2013-04-29 09:25:00,
2013-04-29 04:27:00,58.0,53.2,29.67,South,181,5.0,9.0,84,0.00,,,0.00,0,Wunderground v.1.15,2013-04-29 09:27:00,
2013-04-29 04:28:00,58.0,53.5,29.67,South,181,7.0,9.0,85,0.00,,,0.00,0,Wunderground v.1.15,2013-04-29 09:28:00,
2013-04-29 04:30:00,58.0,53.5,29.67,South,178,6.0,9.0,85,0.00,,,0.00,0,Wunderground v.1.15,2013-04-29 09:30:00,
2013-04-29 04:32:00,58.0,53.5,29.67,South,176,4.0,6.0,85,0.00,,,0.00,0,Wunderground v.1.15,2013-04-29 09:32:00,
2013-04-29 04:33:00,57.9,53.4,29.67,South,169,6.0,7.0,85,0.00,,,0.00,0,Wunderground v.1.15,2013-04-29 09:33:00,
2013-04-29 04:34:00,57.9,53.4,29.67,South,174,6.0,7.0,85,0.00,,,0.00,0,Wunderground v.1.15,2013-04-29 09:34:00,
2013-04-29 04:35:00,58.0,53.5,29.67,SSE,167,5.0,7.0,85,0.00,,,0.00,0,Wunderground v.1.15,2013-04-29 09:35:00,
2013-04-29 04:37:00,58.1,53.6,29.67,South,181,6.0,7.0,85,0.00,,,0.00,0,Wunderground v.1.15,2013-04-29 09:37:00,
2013-04-29 04:38:00,58.1,53.6,29.67,South,189,8.0,8.0,85,0.00,,,0.00,0,Wunderground v.1.15,2013-04-29 09:38:00,
2013-04-29 04:40:00,58.2,53.7,29.67,South,178,6.0,6.0,85,0.00,,,0.00,0,Wunderground v.1.15,2013-04-29 09:40:00,
2013-04-29 04:41:00,58.2,53.7,29.67,SSE,168,5.0,7.0,85,0.00,,,0.00,0,Wunderground v.1.15,2013-04-29 09:41:00,
2013-04-29 04:42:00,58.3,53.8,29.67,South,180,6.0,8.0,85,0.00,,,0.00,0,Wunderground v.1.15,2013-04-29 09:42:00,
2013-04-29 04:43:00,58.3,53.8,29.67,South,172,5.0,8.0,85,0.00,,,0.00,0,Wunderground v.1.15,2013-04-29 09:43:00,
2013-04-29 04:45:00,58.2,53.4,29.67,South,171,5.0,8.0,84,0.00,,,0.00,0,Wunderground v.1.15,2013-04-29 09:45:00,
2013-04-29 04:46:00,58.2,53.7,29.67,South,173,5.0,8.0,85,0.00,,,0.00,0,Wunderground v.1.15,2013-04-29 09:46:00,
2013-04-29 04:48:00,58.1,53.6,29.67,SSE,167,4.0,8.0,85,0.00,,,0.00,0,Wunderground v.1.15,2013-04-29 09:48:00,
2013-04-29 04:49:00,58.0,53.5,29.67,South,183,7.0,8.0,85,0.00,,,0.00,0,Wunderground v.1.15,2013-04-29 09:49:00,
2013-04-29 04:50:00,58.0,53.5,29.67,South,172,3.0,8.0,85,0.00,,,0.00,0,Wunderground v.1.15,2013-04-29 09:50:00,
2013-04-29 04:53:00,58.0,53.5,29.67,SSE,163,5.0,9.0,85,0.00,,,0.00,0,Wunderground v.1.15,2013-04-29 09:53:00,
2013-04-29 04:54:00,58.0,53.5,29.67,South,169,6.0,9.0,85,0.00,,,0.00,0,Wunderground v.1.15,2013-04-29 09:54:00,
2013-04-29 04:55:00,58.0,53.5,29.67,South,175,8.0,9.0,85,0.00,,,0.00,0,Wunderground v.1.15,2013-04-29 09:55:00,
2013-04-29 04:56:00,58.1,53.6,29.67,SSE,164,7.0,9.0,85,0.00,,,0.00,0,Wunderground v.1.15,2013-04-29 09:56:00,
2013-04-29 04:59:00,58.1,53.6,29.67,South,179,5.0,9.0,85,0.00,,,0.00,0,Wunderground v.1.15,2013-04-29 09:59:00,
2013-04-29 05:00:00,58.1,53.6,29.67,South,179,6.0,6.0,85,0.00,,,0.00,0,Wunderground v.1.15,2013-04-29 10:00:00,
2013-04-29 05:01:00,58.0,53.5,29.67,South,182,6.0,6.0,85,0.00,,,0.00,0,Wunderground v.1.15,2013-04-29 10:01:00,
2013-04-29 05:02:00,58.0,53.5,29.67,South,173,4.0,7.0,85,0.00,,,0.00,0,Wunderground v.1.15,2013-04-29 10:02:00,
2013-04-29 05:04:00,57.9,53.4,29.66,South,181,6.0,8.0,85,0.00,,,0.00,0,Wunderground v.1.15,2013-04-29 10:04:00,
2013-04-29 05:06:00,57.8,53.3,29.66,South,179,5.0,8.0,85,0.00,,,0.00,0,Wunderground v.1.15,2013-04-29 10:06:00,
2013-04-29 05:07:00,57.7,53.2,29.67,South,180,7.0,8.0,85,0.00,,,0.00,0,Wunderground v.1.15,2013-04-29 10:07:00,
2013-04-29 05:10:00,57.7,53.2,29.66,South,179,5.0,8.0,85,0.00,,,0.00,0,Wunderground v.1.15,2013-04-29 10:10:00,
2013-04-29 05:11:00,57.7,53.2,29.66,South,190,7.0,7.0,85,0.00,,,0.00,0,Wunderground v.1.15,2013-04-29 10:11:00,
2013-04-29 05:12:00,57.7,53.2,29.66,South,173,8.0,8.0,85,0.00,,,0.00,0,Wunderground v.1.15,2013-04-29 10:12:00,
2013-04-29 05:13:00,57.7,53.2,29.66,South,171,6.0,8.0,85,0.00,,,0.00,0,Wunderground v.1.15,2013-04-29 10:13:00,
2013-04-29 05:16:00,57.6,53.1,29.66,South,176,7.0,8.0,85,0.00,,,0.00,0,Wunderground v.1.15,2013-04-29 10:16:00,
2013-04-29 05:17:00,57.6,53.1,29.66,South,171,5.0,8.0,85,0.00,,,0.00,0,Wunderground v.1.15,2013-04-29 10:17:00,
2013-04-29 05:19:00,57.6,53.1,29.66,SSE,161,5.0,8.0,85,0.00,,,0.00,0,Wunderground v.1.15,2013-04-29 10:19:00,
2013-04-29 05:20:00,57.6,53.1,29.66,SSE,167,7.0,8.0,85,0.00,,,0.00,0,Wunderground v.1.15,2013-04-29 10:20:00,
2013-04-29 05:22:00,57.6,53.1,29.66,South,170,6.0,10.0,85,0.00,,,0.00,0,Wunderground v.1.15,2013-04-29 10:22:00,
2013-04-29 05:24:00,57.6,53.1,29.66,South,169,4.0,10.0,85,0.00,,,0.00,0,Wunderground v.1.15,2013-04-29 10:24:00,
2013-04-29 05:25:00,57.6,53.1,29.66,South,179,7.0,10.0,85,0.00,,,0.00,0,Wunderground v.1.15,2013-04-29 10:25:00,
2013-04-29 05:28:00,57.5,53.0,29.66,SSE,167,5.0,10.0,85,0.00,,,0.00,0,Wunderground v.1.15,2013-04-29 10:28:00,
2013-04-29 05:30:00,57.5,53.0,29.66,SSE,161,4.0,10.0,85,0.00,,,0.00,0,Wunderground v.1.15,2013-04-29 10:30:00,
2013-04-29 05:33:00,57.4,52.9,29.66,SSE,166,4.0,6.0,85,0.00,,,0.00,0,Wunderground v.1.15,2013-04-29 10:33:00,
2013-04-29 05:34:00,57.4,52.9,29.66,SSE,157,4.0,6.0,85,0.00,,,0.00,0,Wunderground v.1.15,2013-04-29 10:34:00,
2013-04-29 05:36:00,57.4,53.2,29.66,SSE,163,3.0,6.0,86,0.00,,,0.00,0,Wunderground v.1.15,2013-04-29 10:36:00,
2013-04-29 05:38:00,57.4,52.9,29.66,SSE,159,2.0,6.0,85,0.00,,,0.00,0,Wunderground v.1.15,2013-04-29 10:38:00,
2013-04-29 05:39:00,57.4,52.9,29.67,South,171,2.0,6.0,85,0.00,,,0.00,0,Wunderground v.1.15,2013-04-29 10:39:00,
2013-04-29 05:40:00,57.5,53.0,29.66,SSE,160,3.0,4.0,85,0.00,,,0.00,0,Wunderground v.1.15,2013-04-29 10:40:00,
2013-04-29 05:41:00,57.5,53.0,29.66,SSE,160,3.0,4.0,85,0.00,,,0.00,0,Wunderground v.1.15,2013-04-29 10:41:00,
2013-04-29 05:44:00,57.4,52.9,29.67,SSE,160,2.0,4.0,85,0.00,,,0.00,0,Wunderground v.1.15,2013-04-29 10:44:00,
2013-04-29 05:46:00,57.4,52.9,29.67,SSE,154,2.0,4.0,85,0.00,,,0.00,0,Wunderground v.1.15,2013-04-29 10:46:00,
2013-04-29 05:47:00,57.4,53.2,29.67,SSE,154,2.0,4.0,86,0.00,,,0.00,0,Wunderground v.1.15,2013-04-29 10:47:00,
2013-04-29 05:49:00,57.6,53.1,29.67,SE,144,0.0,4.0,85,0.00,,,0.00,0,Wunderground v.1.15,2013-04-29 10:49:00,
2013-04-29 05:50:00,57.6,53.1,29.67,SE,144,0.0,4.0,85,0.00,,,0.00,0,Wunderground v.1.15,2013-04-29 10:50:00,
2013-04-29 05:51:00,57.7,53.2,29.67,SE,144,0.0,2.0,85,0.00,,,0.00,0,Wunderground v.1.15,2013-04-29 10:51:00,
2013-04-29 05:52:00,57.7,53.2,29.67,SE,144,0.0,2.0,85,0.00,,,0.00,0,Wunderground v.1.15,2013-04-29 10:52:00,
2013-04-29 05:54:00,57.7,53.2,29.67,SE,144,0.0,2.0,85,0.00,,,0.00,0,Wunderground v.1.15,2013-04-29 10:54:00,
2013-04-29 05:55:00,57.7,53.2,29.67,SE,144,0.0,2.0,85,0.00,,,0.00,0,Wunderground v.1.15,2013-04-29 10:55:00,
2013-04-29 05:57:00,57.6,53.1,29.67,SE,144,0.0,2.0,85,0.00,,,0.00,0,Wunderground v.1.15,2013-04-29 10:57:00,
2013-04-29 05:58:00,57.6,53.1,29.67,SE,144,0.0,2.0,85,0.00,,,0.00,0,Wunderground v.1.15,2013-04-29 10:58:00,
2013-04-29 05:59:00,57.6,53.1,29.68,SE,144,0.0,2.0,85,0.00,,,0.00,0,Wunderground v.1.15,2013-04-29 10:59:00,
2013-04-29 06:01:00,57.6,53.1,29.68,SE,144,0.0,0.0,85,0.00,,,0.00,0,Wunderground v.1.15,2013-04-29 11:01:00,
2013-04-29 06:03:00,57.5,53.0,29.68,SE,144,0.0,0.0,85,0.00,,,0.00,0,Wunderground v.1.15,2013-04-29 11:03:00,
2013-04-29 06:04:00,57.4,52.9,29.67,SE,144,0.0,0.0,85,0.00,,,0.00,0,Wunderground v.1.15,2013-04-29 11:04:00,
2013-04-29 06:07:00,57.2,52.7,29.67,SE,144,0.0,0.0,85,0.00,,,0.00,0,Wunderground v.1.15,2013-04-29 11:07:00,
2013-04-29 06:08:00,57.0,52.5,29.68,SE,144,0.0,0.0,85,0.00,,,0.00,0,Wunderground v.1.15,2013-04-29 11:08:00,
2013-04-29 06:09:00,56.9,52.4,29.68,SE,144,0.0,0.0,85,0.00,,,0.00,0,Wunderground v.1.15,2013-04-29 11:09:00,
2013-04-29 06:10:00,56.9,52.8,29.68,SE,144,0.0,0.0,86,0.00,,,0.00,0,Wunderground v.1.15,2013-04-29 11:10:00,
2013-04-29 06:11:00,56.9,52.8,29.68,SE,144,0.0,0.0,86,0.00,,,0.00,0,Wunderground v.1.15,2013-04-29 11:11:00,
2013-04-29 06:14:00,57.0,52.9,29.68,SE,144,0.0,1.0,86,0.00,,,0.00,0,Wunderground v.1.15,2013-04-29 11:14:00,
2013-04-29 06:15:00,57.1,53.0,29.68,SE,144,0.0,1.0,86,0.00,,,0.00,0,Wunderground v.1.15,2013-04-29 11:15:00,
2013-04-29 06:16:00,57.2,53.0,29.68,SE,144,0.0,1.0,86,0.00,,,0.00,0,Wunderground v.1.15,2013-04-29 11:16:00,
2013-04-29 06:17:00,57.3,53.1,29.68,SE,144,0.0,1.0,86,0.00,,,0.00,0,Wunderground v.1.15,2013-04-29 11:17:00,
2013-04-29 06:20:00,56.9,52.1,29.68,SE,144,0.0,1.0,84,0.00,,,0.00,5,Wunderground v.1.15,2013-04-29 11:20:00,
2013-04-29 06:21:00,56.7,52.2,29.68,SE,144,0.0,0.0,85,0.00,,,0.00,5,Wunderground v.1.15,2013-04-29 11:21:00,
2013-04-29 06:23:00,56.6,52.5,29.68,SE,144,0.0,0.0,86,0.00,,,0.00,5,Wunderground v.1.15,2013-04-29 11:23:00,
2013-04-29 06:25:00,56.7,52.9,29.68,SE,144,0.0,0.0,87,0.00,,,0.00,11,Wunderground v.1.15,2013-04-29 11:25:00,
2013-04-29 06:26:00,56.8,52.7,29.68,SE,144,0.0,0.0,86,0.00,,,0.00,11,Wunderground v.1.15,2013-04-29 11:26:00,
2013-04-29 06:27:00,56.9,52.8,29.68,SE,144,0.0,0.0,86,0.00,,,0.00,12,Wunderground v.1.15,2013-04-29 11:27:00,
2013-04-29 06:28:00,56.9,52.8,29.68,SE,144,0.0,0.0,86,0.00,,,0.00,12,Wunderground v.1.15,2013-04-29 11:28:00,
2013-04-29 06:30:00,56.7,52.2,29.68,SE,144,0.0,0.0,85,0.00,,,0.00,18,Wunderground v.1.15,2013-04-29 11:30:00,
2013-04-29 06:32:00,56.6,52.8,29.68,SE,144,0.0,0.0,87,0.00,,,0.00,19,Wunderground v.1.15,2013-04-29 11:32:00,
2013-04-29 06:33:00,56.6,52.8,29.68,SE,144,0.0,0.0,87,0.00,,,0.00,23,Wunderground v.1.15,2013-04-29 11:33:00,
2013-04-29 06:34:00,56.5,52.4,29.68,SE,144,0.0,0.0,86,0.00,,,0.00,25,Wunderground v.1.15,2013-04-29 11:34:00,
2013-04-29 06:35:00,56.4,52.6,29.68,SE,144,0.0,0.0,87,0.00,,,0.00,26,Wunderground v.1.15,2013-04-29 11:35:00,
2013-04-29 06:37:00,56.4,52.6,29.68,SE,144,0.0,0.0,87,0.00,,,0.00,32,Wunderground v.1.15,2013-04-29 11:37:00,
2013-04-29 06:38:00,56.3,52.5,29.69,SE,144,0.0,0.0,87,0.00,,,0.00,32,Wunderground v.1.15,2013-04-29 11:38:00,
2013-04-29 06:39:00,56.3,52.5,29.69,SE,144,0.0,0.0,87,0.00,,,0.00,32,Wunderground v.1.15,2013-04-29 11:39:00,
2013-04-29 06:41:00,56.0,52.2,29.69,SE,144,0.0,0.0,87,0.00,,,0.00,30,Wunderground v.1.15,2013-04-29 11:41:00,
2013-04-29 06:42:00,56.0,52.5,29.69,SE,135,2.0,2.0,88,0.00,,,0.00,25,Wunderground v.1.15,2013-04-29 11:42:00,
2013-04-29 06:45:00,56.1,52.6,29.68,ESE,122,1.0,3.0,88,0.00,,,0.00,26,Wunderground v.1.15,2013-04-29 11:45:00,
2013-04-29 06:46:00,56.2,52.7,29.68,ESE,122,0.0,3.0,88,0.00,,,0.00,30,Wunderground v.1.15,2013-04-29 11:46:00,
2013-04-29 06:47:00,56.2,52.7,29.68,ESE,122,0.0,3.0,88,0.00,,,0.00,32,Wunderground v.1.15,2013-04-29 11:47:00,
2013-04-29 06:49:00,56.3,52.8,29.68,ESE,122,0.0,3.0,88,0.00,,,0.00,33,Wunderground v.1.15,2013-04-29 11:49:00,
2013-04-29 06:50:00,56.2,52.7,29.68,ESE,122,0.0,1.0,88,0.00,,,0.00,35,Wunderground v.1.15,2013-04-29 11:50:00,
2013-04-29 06:52:00,56.1,52.6,29.68,ESE,122,0.0,1.0,88,0.00,,,0.00,40,Wunderground v.1.15,2013-04-29 11:52:00,
2013-04-29 06:53:00,56.1,52.6,29.69,ESE,122,0.0,1.0,88,0.00,,,0.00,42,Wunderground v.1.15,2013-04-29 11:53:00,
2013-04-29 06:56:00,56.2,52.7,29.68,ESE,121,2.0,3.0,88,0.00,,,0.00,42,Wunderground v.1.15,2013-04-29 11:56:00,
2013-04-29 06:57:00,56.2,52.4,29.69,ESE,113,3.0,3.0,87,0.00,,,0.00,42,Wunderground v.1.15,2013-04-29 11:57:00,
2013-04-29 06:58:00,56.2,52.4,29.69,ESE,113,2.0,3.0,87,0.00,,,0.00,42,Wunderground v.1.15,2013-04-29 11:58:00,
2013-04-29 06:59:00,56.2,52.4,29.69,ESE,113,2.0,3.0,87,0.00,,,0.00,42,Wunderground v.1.15,2013-04-29 11:59:00,
2013-04-29 07:02:00,56.1,52.3,29.68,ESE,113,3.0,3.0,87,0.00,,,0.00,47,Wunderground v.1.15,2013-04-29 12:02:00,
2013-04-29 07:04:00,56.1,52.3,29.69,ESE,107,4.0,4.0,87,0.00,,,0.00,54,Wunderground v.1.15,2013-04-29 12:04:00,
2013-04-29 07:05:00,56.0,52.2,29.69,ESE,107,2.0,4.0,87,0.00,,,0.00,63,Wunderground v.1.15,2013-04-29 12:05:00,
2013-04-29 07:07:00,56.0,52.2,29.69,NE,45,3.0,4.0,87,0.00,,,0.00,77,Wunderground v.1.15,2013-04-29 12:07:00,
2013-04-29 07:08:00,56.0,52.2,29.69,NE,52,2.0,4.0,87,0.00,,,0.00,90,Wunderground v.1.15,2013-04-29 12:08:00,
2013-04-29 07:09:00,56.0,52.2,29.69,NE,52,2.0,4.0,87,0.00,,,0.00,95,Wunderground v.1.15,2013-04-29 12:09:00,
2013-04-29 07:10:00,56.0,52.2,29.69,NE,52,3.0,4.0,87,0.00,,,0.00,100,Wunderground v.1.15,2013-04-29 12:10:00,
2013-04-29 07:12:00,56.1,52.6,29.69,NE,52,3.0,3.0,88,0.00,,,0.00,105,Wunderground v.1.15,2013-04-29 12:12:00,
2013-04-29 07:13:00,56.1,52.3,29.69,NE,46,3.0,3.0,87,0.00,,,0.00,125,Wunderground v.1.15,2013-04-29 12:13:00,
2013-04-29 07:15:00,56.2,52.7,29.69,NE,51,2.0,3.0,88,0.00,,,0.00,81,Wunderground v.1.15,2013-04-29 12:15:00,
2013-04-29 07:16:00,56.2,52.4,29.69,NE,51,2.0,3.0,87,0.00,,,0.00,77,Wunderground v.1.15,2013-04-29 12:16:00,
2013-04-29 07:18:00,56.2,52.4,29.69,NE,51,1.0,3.0,87,0.00,,,0.00,79,Wunderground v.1.15,2013-04-29 12:18:00,
2013-04-29 07:20:00,56.2,52.4,29.69,NE,52,3.0,3.0,87,0.00,,,0.00,67,Wunderground v.1.15,2013-04-29 12:20:00,
2013-04-29 07:21:00,56.2,52.4,29.69,NE,52,3.0,3.0,87,0.00,,,0.00,69,Wunderground v.1.15,2013-04-29 12:21:00,
2013-04-29 07:23:00,56.3,52.5,29.69,NE,52,2.0,3.0,87,0.00,,,0.00,79,Wunderground v.1.15,2013-04-29 12:23:00,
2013-04-29 07:25:00,56.3,52.5,29.69,NE,52,2.0,3.0,87,0.00,,,0.00,86,Wunderground v.1.15,2013-04-29 12:25:00,
2013-04-29 07:26:00,56.3,52.5,29.69,NE,53,4.0,4.0,87,0.00,,,0.00,91,Wunderground v.1.15,2013-04-29 12:26:00,
2013-04-29 07:28:00,56.3,52.5,29.69,ENE,76,2.0,4.0,87,0.00,,,0.00,105,Wunderground v.1.15,2013-04-29 12:28:00,
2013-04-29 07:29:00,56.3,52.5,29.69,ENE,76,1.0,4.0,87,0.00,,,0.00,109,Wunderground v.1.15,2013-04-29 12:29:00,
2013-04-29 07:30:00,56.3,52.8,29.69,ENE,75,2.0,2.0,88,0.00,,,0.00,107,Wunderground v.1.15,2013-04-29 12:30:00,
2013-04-29 07:32:00,56.2,52.4,29.69,ENE,68,3.0,3.0,87,0.00,,,0.00,102,Wunderground v.1.15,2013-04-29 12:32:00,
2013-04-29 07:34:00,56.2,52.4,29.69,ENE,69,3.0,3.0,87,0.00,,,0.00,100,Wunderground v.1.15,2013-04-29 12:34:00,
2013-04-29 07:35:00,56.2,52.4,29.69,ENE,63,3.0,3.0,87,0.00,,,0.00,113,Wunderground v.1.15,2013-04-29 12:35:00,
2013-04-29 07:36:00,56.2,52.4,29.69,ENE,63,2.0,3.0,87,0.00,,,0.00,107,Wunderground v.1.15,2013-04-29 12:36:00,
2013-04-29 07:38:00,56.2,52.4,29.69,ENE,65,2.0,3.0,87,0.00,,,0.00,105,Wunderground v.1.15,2013-04-29 12:38:00,
2013-04-29 07:40:00,56.2,52.4,29.69,East,88,2.0,3.0,87,0.00,,,0.00,113,Wunderground v.1.15,2013-04-29 12:40:00,
2013-04-29 07:41:00,56.3,52.8,29.69,East,96,2.0,5.0,88,0.00,,,0.00,160,Wunderground v.1.15,2013-04-29 12:41:00,
2013-04-29 07:43:00,56.3,52.8,29.69,ESE,105,3.0,5.0,88,0.00,,,0.00,102,Wunderground v.1.15,2013-04-29 12:43:00,
2013-04-29 07:45:00,56.3,52.8,29.69,East,101,3.0,5.0,88,0.00,,,0.00,91,Wunderground v.1.15,2013-04-29 12:45:00,
2013-04-29 07:46:00,56.3,52.8,29.69,East,101,3.0,5.0,88,0.00,,,0.00,91,Wunderground v.1.15,2013-04-29 12:46:00,
2013-04-29 07:48:00,56.4,52.9,29.69,East,100,2.0,5.0,88,0.00,,,0.00,97,Wunderground v.1.15,2013-04-29 12:48:00,
2013-04-29 07:49:00,56.4,52.9,29.69,East,98,3.0,5.0,88,0.00,,,0.00,97,Wunderground v.1.15,2013-04-29 12:49:00,
2013-04-29 07:50:00,56.4,52.9,29.69,East,82,2.0,5.0,88,0.00,,,0.00,93,Wunderground v.1.15,2013-04-29 12:50:00,
2013-04-29 07:51:00,56.4,52.9,29.69,East,82,1.0,5.0,88,0.00,,,0.00,91,Wunderground v.1.15,2013-04-29 12:51:00,
2013-04-29 07:52:00,56.4,52.9,29.69,East,82,2.0,5.0,88,0.00,,,0.00,90,Wunderground v.1.15,2013-04-29 12:52:00,
2013-04-29 07:54:00,56.4,52.9,29.69,East,84,1.0,5.0,88,0.00,,,0.00,91,Wunderground v.1.15,2013-04-29 12:54:00,
2013-04-29 07:56:00,56.4,52.9,29.69,ESE,115,3.0,5.0,88,0.00,,,0.00,90,Wunderground v.1.15,2013-04-29 12:56:00,
2013-04-29 07:58:00,56.5,52.7,29.69,East,101,1.0,5.0,87,0.00,,,0.00,93,Wunderground v.1.15,2013-04-29 12:58:00,
2013-04-29 07:59:00,56.5,53.0,29.69,East,101,0.0,5.0,88,0.00,,,0.00,120,Wunderground v.1.15,2013-04-29 12:59:00,
2013-04-29 08:00:00,56.5,53.0,29.69,East,101,2.0,2.0,88,0.00,,,0.00,120,Wunderground v.1.15,2013-04-29 13:00:00,
2013-04-29 08:01:00,56.5,53.0,29.69,East,101,3.0,3.0,88,0.00,,,0.00,105,Wunderground v.1.15,2013-04-29 13:01:00,
2013-04-29 08:03:00,56.7,53.2,29.69,East,80,2.0,3.0,88,0.00,,,0.00,104,Wunderground v.1.15,2013-04-29 13:03:00,
2013-04-29 08:05:00,56.7,52.9,29.69,East,80,1.0,3.0,87,0.00,,,0.00,105,Wunderground v.1.15,2013-04-29 13:05:00,
2013-04-29 08:06:00,56.7,52.9,29.70,East,80,0.0,3.0,87,0.00,,,0.00,105,Wunderground v.1.15,2013-04-29 13:06:00,
2013-04-29 08:07:00,56.8,53.0,29.69,East,80,1.0,3.0,87,0.00,,,0.00,105,Wunderground v.1.15,2013-04-29 13:07:00,
2013-04-29 08:09:00,56.8,53.0,29.69,East,80,3.0,3.0,87,0.00,,,0.00,183,Wunderground v.1.15,2013-04-29 13:09:00,
2013-04-29 08:12:00,57.1,53.3,29.68,East,80,3.0,5.0,87,0.00,,,0.00,255,Wunderground v.1.15,2013-04-29 13:12:00,
2013-04-29 08:15:00,57.9,54.1,29.68,ENE,69,3.0,5.0,87,0.00,,,0.00,380,Wunderground v.1.15,2013-04-29 13:15:00,
2013-04-29 08:17:00,58.6,54.7,29.68,ENE,70,4.0,5.0,87,0.00,,,0.00,381,Wunderground v.1.15,2013-04-29 13:17:00,
2013-04-29 08:18:00,58.8,54.6,29.67,ENE,57,4.0,5.0,86,0.00,,,0.00,381,Wunderground v.1.15,2013-04-29 13:18:00,
2013-04-29 08:20:00,58.9,54.1,29.67,NE,55,5.0,5.0,84,0.00,,,0.00,144,Wunderground v.1.15,2013-04-29 13:20:00,
2013-04-29 08:21:00,58.9,54.1,29.67,NE,45,8.0,8.0,84,0.00,,,0.00,139,Wunderground v.1.15,2013-04-29 13:21:00,
2013-04-29 08:23:00,58.9,53.7,29.66,NE,53,4.0,8.0,83,0.00,,,0.00,125,Wunderground v.1.15,2013-04-29 13:23:00,
2013-04-29 08:24:00,58.9,53.7,29.66,ENE,73,2.0,8.0,83,0.00,,,0.00,121,Wunderground v.1.15,2013-04-29 13:24:00,
2013-04-29 08:26:00,58.8,54.3,29.66,ENE,75,4.0,8.0,85,0.00,,,0.00,121,Wunderground v.1.15,2013-04-29 13:26:00,
2013-04-29 08:28:00,58.8,54.0,29.66,East,96,5.0,8.0,84,0.00,,,0.00,128,Wunderground v.1.15,2013-04-29 13:28:00,
2013-04-29 08:29:00,58.8,54.0,29.66,East,79,2.0,8.0,84,0.00,,,0.00,128,Wunderground v.1.15,2013-04-29 13:29:00,
2013-04-29 08:32:00,58.8,54.0,29.67,East,80,2.0,5.0,84,0.00,,,0.00,155,Wunderground v.1.15,2013-04-29 13:32:00,
2013-04-29 08:34:00,58.9,54.1,29.67,East,82,0.0,5.0,84,0.00,,,0.00,160,Wunderground v.1.15,2013-04-29 13:34:00,
2013-04-29 08:35:00,58.9,54.1,29.67,ESE,115,5.0,5.0,84,0.00,,,0.00,160,Wunderground v.1.15,2013-04-29 13:35:00,
2013-04-29 08:40:00,59.3,54.1,29.67,SE,131,4.0,4.0,83,0.00,,,0.00,148,Wunderground v.1.15,2013-04-29 13:40:00,
2013-04-29 08:41:00,59.4,54.2,29.68,SE,131,4.0,4.0,83,0.00,,,0.00,148,Wunderground v.1.15,2013-04-29 13:41:00,
2013-04-29 08:42:00,59.5,54.0,29.68,SE,129,3.0,4.0,82,0.00,,,0.00,148,Wunderground v.1.15,2013-04-29 13:42:00,
2013-04-29 08:45:00,60.1,54.9,29.67,SE,136,6.0,6.0,83,0.00,,,0.00,148,Wunderground v.1.15,2013-04-29 13:45:00,
2013-04-29 08:46:00,60.2,54.7,29.67,SE,140,5.0,6.0,82,0.00,,,0.00,148,Wunderground v.1.15,2013-04-29 13:46:00,
2013-04-29 08:47:00,60.2,54.3,29.67,SE,140,4.0,6.0,81,0.00,,,0.00,461,Wunderground v.1.15,2013-04-29 13:47:00,
2013-04-29 08:49:00,60.5,54.6,29.67,ESE,119,2.0,6.0,81,0.00,,,0.00,489,Wunderground v.1.15,2013-04-29 13:49:00,
2013-04-29 08:52:00,61.0,54.8,29.67,SSE,163,2.0,4.0,80,0.00,,,0.00,443,Wunderground v.1.15,2013-04-29 13:52:00,
2013-04-29 08:53:00,61.0,54.8,29.68,SSE,163,3.0,4.0,80,0.00,,,0.00,221,Wunderground v.1.15,2013-04-29 13:53:00,
2013-04-29 08:54:00,61.0,54.8,29.68,SE,145,4.0,4.0,80,0.00,,,0.00,197,Wunderground v.1.15,2013-04-29 13:54:00,
2013-04-29 08:56:00,60.9,54.7,29.67,SSE,155,2.0,5.0,80,0.00,,,0.00,197,Wunderground v.1.15,2013-04-29 13:56:00,
2013-04-29 08:58:00,60.6,54.7,29.67,SE,126,4.0,5.0,81,0.00,,,0.00,174,Wunderground v.1.15,2013-04-29 13:58:00,
2013-04-29 08:59:00,60.5,54.3,29.67,SE,126,1.0,5.0,80,0.00,,,0.00,178,Wunderground v.1.15,2013-04-29 13:59:00,
2013-04-29 09:00:00,60.4,54.2,29.67,SE,126,2.0,2.0,80,0.00,,,0.00,229,Wunderground v.1.15,2013-04-29 14:00:00,
2013-04-29 09:02:00,60.5,54.3,29.67,SE,128,3.0,3.0,80,0.00,,,0.00,385,Wunderground v.1.15,2013-04-29 14:02:00,
2013-04-29 09:04:00,60.9,55.0,29.67,SE,143,3.0,4.0,81,0.00,,,0.00,473,Wunderground v.1.15,2013-04-29 14:04:00,
2013-04-29 09:05:00,61.3,55.4,29.67,SSE,165,3.0,7.0,81,0.00,,,0.00,462,Wunderground v.1.15,2013-04-29 14:05:00,
2013-04-29 09:07:00,61.5,55.3,29.67,SSE,168,5.0,7.0,80,0.00,,,0.00,381,Wunderground v.1.15,2013-04-29 14:07:00,
2013-04-29 09:08:00,61.5,54.9,29.67,SSE,161,3.0,7.0,79,0.00,,,0.00,364,Wunderground v.1.15,2013-04-29 14:08:00,
2013-04-29 09:10:00,61.5,55.3,29.67,South,174,5.0,7.0,80,0.00,,,0.00,271,Wunderground v.1.15,2013-04-29 14:10:00,
2013-04-29 09:13:00,61.6,55.4,29.67,SSE,164,4.0,6.0,80,0.00,,,0.00,504,Wunderground v.1.15,2013-04-29 14:13:00,
2013-04-29 09:15:00,61.7,55.1,29.67,SSE,157,4.0,6.0,79,0.00,,,0.00,417,Wunderground v.1.15,2013-04-29 14:15:00,
2013-04-29 09:18:00,61.6,55.0,29.67,SSE,157,4.0,6.0,79,0.00,,,0.00,504,Wunderground v.1.15,2013-04-29 14:18:00,
2013-04-29 09:19:00,61.6,55.0,29.67,SSE,154,4.0,6.0,79,0.00,,,0.00,512,Wunderground v.1.15,2013-04-29 14:19:00,
2013-04-29 09:21:00,61.7,55.1,29.67,SE,142,4.0,5.0,79,0.00,,,0.00,501,Wunderground v.1.15,2013-04-29 14:21:00,
2013-04-29 09:24:00,62.1,55.9,29.67,SE,144,4.0,6.0,80,0.00,,,0.00,527,Wunderground v.1.15,2013-04-29 14:24:00,
2013-04-29 09:25:00,62.2,55.6,29.67,ESE,118,7.0,7.0,79,0.00,,,0.00,527,Wunderground v.1.15,2013-04-29 14:25:00,
2013-04-29 09:27:00,62.3,55.4,29.67,ESE,104,4.0,7.0,78,0.00,,,0.00,533,Wunderground v.1.15,2013-04-29 14:27:00,
2013-04-29 09:29:00,62.3,56.0,29.67,South,181,5.0,7.0,80,0.00,,,0.00,540,Wunderground v.1.15,2013-04-29 14:29:00,
2013-04-29 09:30:00,62.4,55.8,29.67,South,186,4.0,7.0,79,0.00,,,0.00,540,Wunderground v.1.15,2013-04-29 14:30:00,
2013-04-29 09:34:00,62.7,55.7,29.67,SSW,199,7.0,7.0,78,0.00,,,0.00,559,Wunderground v.1.15,2013-04-29 14:34:00,
2013-04-29 09:35:00,62.7,56.1,29.67,SSW,207,7.0,7.0,79,0.00,,,0.00,564,Wunderground v.1.15,2013-04-29 14:35:00,
2013-04-29 09:36:00,62.9,55.9,29.67,SSW,212,4.0,7.0,78,0.00,,,0.00,577,Wunderground v.1.15,2013-04-29 14:36:00,
2013-04-29 09:40:00,63.5,55.8,29.67,South,172,3.0,8.0,76,0.00,,,0.00,596,Wunderground v.1.15,2013-04-29 14:40:00,
2013-04-29 09:41:00,63.6,56.6,29.66,SW,217,4.0,6.0,78,0.00,,,0.00,599,Wunderground v.1.15,2013-04-29 14:41:00,
2013-04-29 09:42:00,63.6,56.3,29.67,SSW,213,3.0,6.0,77,0.00,,,0.00,606,Wunderground v.1.15,2013-04-29 14:42:00,
2013-04-29 09:46:00,63.6,56.3,29.66,South,177,1.0,7.0,77,0.00,,,0.00,612,Wunderground v.1.15,2013-04-29 14:46:00,
2013-04-29 09:47:00,63.7,56.7,29.66,South,182,4.0,7.0,78,0.00,,,0.00,598,Wunderground v.1.15,2013-04-29 14:47:00,
2013-04-29 09:48:00,63.9,56.5,29.66,South,186,3.0,7.0,77,0.00,,,0.00,598,Wunderground v.1.15,2013-04-29 14:48:00,
2013-04-29 09:53:00,64.5,57.5,29.66,WSW,246,8.0,8.0,78,0.00,,,0.00,633,Wunderground v.1.15,2013-04-29 14:53:00,
2013-04-29 09:54:00,64.7,56.6,29.66,SSW,211,2.0,8.0,75,0.00,,,0.00,636,Wunderground v.1.15,2013-04-29 14:54:00,
2013-04-29 09:55:00,64.7,56.2,29.66,SSW,211,0.0,8.0,74,0.00,,,0.00,638,Wunderground v.1.15,2013-04-29 14:55:00,
2013-04-29 09:58:00,64.5,56.4,29.66,SSW,198,0.0,8.0,75,0.00,,,0.00,612,Wunderground v.1.15,2013-04-29 14:58:00,
2013-04-29 09:59:00,64.5,57.1,29.66,SSW,198,0.0,8.0,77,0.00,,,0.00,612,Wunderground v.1.15,2013-04-29 14:59:00,
2013-04-29 10:00:00,64.7,57.3,29.66,SSW,200,2.0,8.0,77,0.00,,,0.00,617,Wunderground v.1.15,2013-04-29 15:00:00,
2013-04-29 10:02:00,65.0,57.2,29.66,West,281,5.0,5.0,76,0.00,,,0.00,617,Wunderground v.1.15,2013-04-29 15:02:00,
2013-04-29 10:03:00,65.0,56.9,29.66,WNW,298,2.0,5.0,75,0.00,,,0.00,666,Wunderground v.1.15,2013-04-29 15:03:00,
2013-04-29 10:04:00,65.0,56.5,29.66,West,265,3.0,5.0,74,0.00,,,0.00,666,Wunderground v.1.15,2013-04-29 15:04:00,
2013-04-29 10:05:00,65.1,57.3,29.66,West,261,4.0,6.0,76,0.00,,,0.00,659,Wunderground v.1.15,2013-04-29 15:05:00,
2013-04-29 10:06:00,65.2,57.4,29.66,WNW,283,2.0,6.0,76,0.00,,,0.00,691,Wunderground v.1.15,2013-04-29 15:06:00,
2013-04-29 10:07:00,65.0,56.5,29.66,WNW,288,0.0,6.0,74,0.00,,,0.00,687,Wunderground v.1.15,2013-04-29 15:07:00,
2013-04-29 10:09:00,64.9,56.4,29.66,WNW,288,0.0,6.0,74,0.00,,,0.00,687,Wunderground v.1.15,2013-04-29 15:09:00,
2013-04-29 10:11:00,64.8,56.3,29.66,WNW,288,0.0,2.0,74,0.00,,,0.00,687,Wunderground v.1.15,2013-04-29 15:11:00,
2013-04-29 10:13:00,65.2,57.1,29.65,NW,309,6.0,7.0,75,0.00,,,0.00,675,Wunderground v.1.15,2013-04-29 15:13:00,
2013-04-29 10:16:00,65.8,57.7,29.65,WNW,302,4.0,7.0,75,0.00,,,0.00,675,Wunderground v.1.15,2013-04-29 15:16:00,
2013-04-29 10:17:00,65.7,56.4,29.65,NW,305,3.0,7.0,72,0.00,,,0.00,564,Wunderground v.1.15,2013-04-29 15:17:00,
2013-04-29 10:18:00,65.5,57.7,29.65,NW,305,2.0,7.0,76,0.00,,,0.00,564,Wunderground v.1.15,2013-04-29 15:18:00,
2013-04-29 10:21:00,65.5,56.6,29.65,WNW,296,2.0,4.0,73,0.00,,,0.00,722,Wunderground v.1.15,2013-04-29 15:21:00,
2013-04-29 10:22:00,65.5,57.0,29.66,WNW,296,1.0,4.0,74,0.00,,,0.00,722,Wunderground v.1.15,2013-04-29 15:22:00,
2013-04-29 10:23:00,65.4,56.5,29.66,WSW,249,4.0,4.0,73,0.00,,,0.00,722,Wunderground v.1.15,2013-04-29 15:23:00,
2013-04-29 10:25:00,65.5,57.4,29.66,SW,227,0.0,4.0,75,0.00,,,0.00,383,Wunderground v.1.15,2013-04-29 15:25:00,
2013-04-29 10:27:00,65.8,57.3,29.66,WNW,298,4.0,5.0,74,0.00,,,0.00,786,Wunderground v.1.15,2013-04-29 15:27:00,
2013-04-29 10:28:00,66.0,57.5,29.67,WNW,292,4.0,5.0,74,0.00,,,0.00,786,Wunderground v.1.15,2013-04-29 15:28:00,
2013-04-29 10:30:00,66.4,57.9,29.66,WNW,294,6.0,7.0,74,0.00,,,0.00,786,Wunderground v.1.15,2013-04-29 15:30:00,
2013-04-29 10:32:00,66.4,57.5,29.66,NNW,340,3.0,5.0,73,0.00,,,0.00,867,Wunderground v.1.15,2013-04-29 15:32:00,
2013-04-29 10:33:00,66.6,57.7,29.66,NNW,336,2.0,5.0,73,0.00,,,0.00,867,Wunderground v.1.15,2013-04-29 15:33:00,
2013-04-29 10:35:00,67.0,59.5,29.66,NW,322,3.0,5.0,77,0.00,,,0.00,867,Wunderground v.1.15,2013-04-29 15:35:00,
2013-04-29 10:38:00,66.5,56.8,29.66,NW,316,0.0,5.0,71,0.00,,,0.00,482,Wunderground v.1.15,2013-04-29 15:38:00,
2013-04-29 10:40:00,66.2,56.5,29.66,NW,316,2.0,6.0,71,0.00,,,0.00,570,Wunderground v.1.15,2013-04-29 15:40:00,
2013-04-29 10:41:00,66.1,56.4,29.66,NW,316,3.0,3.0,71,0.00,,,0.00,529,Wunderground v.1.15,2013-04-29 15:41:00,
2013-04-29 10:44:00,66.6,57.3,29.66,NNW,347,3.0,3.0,72,0.00,,,0.00,700,Wunderground v.1.15,2013-04-29 15:44:00,
2013-04-29 10:45:00,66.7,57.4,29.65,NNW,339,3.0,3.0,72,0.00,,,0.00,700,Wunderground v.1.15,2013-04-29 15:45:00,
2013-04-29 10:46:00,66.8,57.1,29.66,NNW,348,2.0,3.0,71,0.00,,,0.00,700,Wunderground v.1.15,2013-04-29 15:46:00,
2013-04-29 10:47:00,67.1,58.5,29.65,NNW,348,0.0,3.0,74,0.00,,,0.00,810,Wunderground v.1.15,2013-04-29 15:47:00,
2013-04-29 10:48:00,67.4,59.6,29.66,NNW,348,0.0,3.0,76,0.00,,,0.00,812,Wunderground v.1.15,2013-04-29 15:48:00,
2013-04-29 10:49:00,67.8,58.8,29.66,NW,317,2.0,3.0,73,0.00,,,0.00,812,Wunderground v.1.15,2013-04-29 15:49:00,
2013-04-29 10:50:00,67.7,57.2,29.66,WNW,296,3.0,3.0,69,0.00,,,0.00,812,Wunderground v.1.15,2013-04-29 15:50:00,
2013-04-29 10:51:00,67.6,57.9,29.66,WNW,286,2.0,3.0,71,0.00,,,0.00,812,Wunderground v.1.15,2013-04-29 15:51:00,
2013-04-29 10:53:00,67.2,57.5,29.66,West,271,0.0,3.0,71,0.00,,,0.00,582,Wunderground v.1.15,2013-04-29 15:53:00,
2013-04-29 10:54:00,67.0,57.7,29.66,WNW,298,4.0,4.0,72,0.00,,,0.00,622,Wunderground v.1.15,2013-04-29 15:54:00,
2013-04-29 10:56:00,67.0,56.9,29.65,NW,306,1.0,4.0,70,0.00,,,0.00,540,Wunderground v.1.15,2013-04-29 15:56:00,
2013-04-29 10:57:00,67.0,56.9,29.65,NW,306,1.0,4.0,70,0.00,,,0.00,540,Wunderground v.1.15,2013-04-29 15:57:00,
2013-04-29 10:59:00,66.8,58.2,29.65,NW,306,0.0,4.0,74,0.00,,,0.00,540,Wunderground v.1.15,2013-04-29 15:59:00,
2013-04-29 11:01:00,67.2,58.2,29.65,NW,306,0.0,1.0,73,0.00,,,0.00,478,Wunderground v.1.15,2013-04-29 16:01:00,
2013-04-29 11:02:00,67.5,57.8,29.65,NW,306,0.0,1.0,71,0.00,,,0.00,515,Wunderground v.1.15,2013-04-29 16:02:00,
2013-04-29 11:04:00,67.6,57.9,29.64,ENE,76,2.0,6.0,71,0.00,,,0.00,540,Wunderground v.1.15,2013-04-29 16:04:00,
2013-04-29 11:06:00,67.6,58.2,29.64,ESE,106,7.0,8.0,72,0.00,,,0.00,513,Wunderground v.1.15,2013-04-29 16:06:00,
2013-04-29 11:07:00,67.6,57.9,29.64,East,84,6.0,8.0,71,0.00,,,0.00,480,Wunderground v.1.15,2013-04-29 16:07:00,
2013-04-29 11:08:00,67.5,57.8,29.64,East,100,7.0,8.0,71,0.00,,,0.00,571,Wunderground v.1.15,2013-04-29 16:08:00,
2013-04-29 11:10:00,67.5,58.2,29.64,SE,130,4.0,4.0,72,0.00,,,0.00,752,Wunderground v.1.15,2013-04-29 16:10:00,
2013-04-29 11:12:00,67.8,57.7,29.64,ESE,108,5.0,5.0,70,0.00,,,0.00,752,Wunderground v.1.15,2013-04-29 16:12:00,
2013-04-29 11:13:00,68.0,58.2,29.65,SE,136,4.0,8.0,71,0.00,,,0.00,752,Wunderground v.1.15,2013-04-29 16:13:00,
2013-04-29 11:14:00,68.0,57.4,29.65,SSE,147,0.0,8.0,69,0.00,,,0.00,752,Wunderground v.1.15,2013-04-29 16:14:00,
2013-04-29 11:15:00,67.8,57.3,29.65,SSE,149,2.0,8.0,69,0.00,,,0.00,731,Wunderground v.1.15,2013-04-29 16:15:00,
2013-04-29 11:18:00,68.1,57.5,29.66,SSE,168,2.0,8.0,69,0.00,,,0.00,923,Wunderground v.1.15,2013-04-29 16:18:00,
2013-04-29 11:19:00,68.1,58.7,29.66,SSE,149,3.0,8.0,72,0.00,,,0.00,923,Wunderground v.1.15,2013-04-29 16:19:00,
2013-04-29 11:20:00,68.3,58.9,29.66,SSE,149,0.0,3.0,72,0.00,,,0.00,923,Wunderground v.1.15,2013-04-29 16:20:00,
2013-04-29 11:22:00,68.7,57.7,29.65,SSW,199,3.0,9.0,68,0.00,,,0.00,900,Wunderground v.1.15,2013-04-29 16:22:00,
2013-04-29 11:25:00,69.0,58.0,29.65,South,172,2.0,9.0,68,0.00,,,0.00,879,Wunderground v.1.15,2013-04-29 16:25:00,
2013-04-29 11:26:00,69.0,58.0,29.65,SSE,168,6.0,9.0,68,0.00,,,0.00,905,Wunderground v.1.15,2013-04-29 16:26:00,
2013-04-29 11:27:00,69.2,58.2,29.65,SE,131,8.0,10.0,68,0.00,,,0.00,853,Wunderground v.1.15,2013-04-29 16:27:00,
2013-04-29 11:28:00,69.3,57.5,29.65,SE,138,6.0,10.0,66,0.00,,,0.00,853,Wunderground v.1.15,2013-04-29 16:28:00,
2013-04-29 11:31:00,67.9,57.4,29.64,SE,131,0.0,5.0,69,0.00,,,0.00,853,Wunderground v.1.15,2013-04-29 16:31:00,
2013-04-29 11:32:00,67.5,57.0,29.63,ESE,104,7.0,7.0,69,0.00,,,0.00,531,Wunderground v.1.15,2013-04-29 16:32:00,
2013-04-29 11:35:00,68.0,57.8,29.63,SSE,161,6.0,11.0,70,0.00,,,0.00,561,Wunderground v.1.15,2013-04-29 16:35:00,
2013-04-29 11:37:00,68.0,57.0,29.63,SSE,151,1.0,11.0,68,0.00,,,0.00,545,Wunderground v.1.15,2013-04-29 16:37:00,
2013-04-29 11:38:00,67.9,56.9,29.63,SE,138,1.0,11.0,68,0.00,,,0.00,504,Wunderground v.1.15,2013-04-29 16:38:00,
2013-04-29 11:39:00,67.9,58.1,29.63,East,95,1.0,11.0,71,0.00,,,0.00,504,Wunderground v.1.15,2013-04-29 16:39:00,
2013-04-29 11:41:00,68.0,58.2,29.63,SE,126,2.0,4.0,71,0.00,,,0.00,469,Wunderground v.1.15,2013-04-29 16:41:00,
2013-04-29 11:42:00,68.2,58.4,29.63,ESE,119,9.0,9.0,71,0.00,,,0.00,469,Wunderground v.1.15,2013-04-29 16:42:00,
2013-04-29 11:43:00,68.3,58.1,29.63,SE,130,7.0,9.0,70,0.00,,,0.00,469,Wunderground v.1.15,2013-04-29 16:43:00,
2013-04-29 11:44:00,68.5,57.9,29.63,ESE,122,5.0,9.0,69,0.00,,,0.00,469,Wunderground v.1.15,2013-04-29 16:44:00,
2013-04-29 11:45:00,68.6,57.6,29.63,ESE,115,5.0,9.0,68,0.00,,,0.00,847,Wunderground v.1.15,2013-04-29 16:45:00,
2013-04-29 11:46:00,68.8,57.8,29.63,East,96,3.0,9.0,68,0.00,,,0.00,835,Wunderground v.1.15,2013-04-29 16:46:00,
2013-04-29 11:48:00,69.0,58.0,29.63,East,80,5.0,9.0,68,0.00,,,0.00,800,Wunderground v.1.15,2013-04-29 16:48:00,
2013-04-29 11:50:00,68.7,57.3,29.63,East,87,7.0,7.0,67,0.00,,,0.00,462,Wunderground v.1.15,2013-04-29 16:50:00,
2013-04-29 11:51:00,68.6,57.6,29.63,ENE,57,3.0,7.0,68,0.00,,,0.00,441,Wunderground v.1.15,2013-04-29 16:51:00,
2013-04-29 11:53:00,68.3,57.3,29.63,ENE,58,2.0,7.0,68,0.00,,,0.00,381,Wunderground v.1.15,2013-04-29 16:53:00,
2013-04-29 11:56:00,68.2,57.6,29.63,SSE,155,6.0,8.0,69,0.00,,,0.00,346,Wunderground v.1.15,2013-04-29 16:56:00,
2013-04-29 11:58:00,67.9,57.4,29.63,SSE,155,0.0,8.0,69,0.00,,,0.00,297,Wunderground v.1.15,2013-04-29 16:58:00,
2013-04-29 11:59:00,67.7,57.2,29.63,SSE,155,2.0,8.0,69,0.00,,,0.00,288,Wunderground v.1.15,2013-04-29 16:59:00,
2013-04-29 12:01:00,67.7,57.2,29.63,SSE,148,6.0,8.0,69,0.00,,,0.00,258,Wunderground v.1.15,2013-04-29 17:01:00,
2013-04-29 12:02:00,67.9,57.4,29.63,SSE,151,6.0,8.0,69,0.00,,,0.00,258,Wunderground v.1.15,2013-04-29 17:02:00,
2013-04-29 12:03:00,68.2,57.2,29.63,SE,140,8.0,8.0,68,0.00,,,0.00,258,Wunderground v.1.15,2013-04-29 17:03:00,
2013-04-29 12:05:00,68.2,57.2,29.63,SE,128,5.0,9.0,68,0.00,,,0.00,306,Wunderground v.1.15,2013-04-29 17:05:00,
2013-04-29 12:07:00,68.2,57.6,29.63,ESE,112,4.0,9.0,69,0.00,,,0.00,540,Wunderground v.1.15,2013-04-29 17:07:00,
2013-04-29 12:10:00,68.3,58.1,29.63,East,86,3.0,6.0,70,0.00,,,0.00,675,Wunderground v.1.15,2013-04-29 17:10:00,
2013-04-29 12:11:00,68.3,58.1,29.62,East,87,2.0,6.0,70,0.00,,,0.00,675,Wunderground v.1.15,2013-04-29 17:11:00,
2013-04-29 12:12:00,68.4,58.2,29.62,ENE,74,4.0,6.0,70,0.00,,,0.00,675,Wunderground v.1.15,2013-04-29 17:12:00,
2013-04-29 12:15:00,68.8,58.6,29.62,East,98,1.0,6.0,70,0.00,,,0.00,914,Wunderground v.1.15,2013-04-29 17:15:00,
2013-04-29 12:16:00,69.2,59.0,29.62,East,80,5.0,6.0,70,0.00,,,0.00,898,Wunderground v.1.15,2013-04-29 17:16:00,
2013-04-29 12:18:00,69.9,59.3,29.62,SSE,155,1.0,6.0,69,0.00,,,0.00,900,Wunderground v.1.15,2013-04-29 17:18:00,
2013-04-29 12:19:00,70.0,59.0,29.62,SSE,152,0.0,6.0,68,0.00,,,0.00,909,Wunderground v.1.15,2013-04-29 17:19:00,
2013-04-29 12:21:00,70.3,59.2,29.63,SSE,167,5.0,6.0,68,0.00,,,0.00,900,Wunderground v.1.15,2013-04-29 17:21:00,
2013-04-29 12:24:00,70.3,58.0,29.63,ESE,119,5.0,7.0,65,0.00,,,0.00,909,Wunderground v.1.15,2013-04-29 17:24:00,
2013-04-29 12:25:00,70.3,59.6,29.63,SE,128,4.0,8.0,69,0.00,,,0.00,909,Wunderground v.1.15,2013-04-29 17:25:00,
2013-04-29 12:26:00,70.6,58.3,29.63,South,186,6.0,8.0,65,0.00,,,0.00,909,Wunderground v.1.15,2013-04-29 17:26:00,
2013-04-29 12:29:00,70.7,59.2,29.62,SE,134,6.0,8.0,67,0.00,,,0.00,907,Wunderground v.1.15,2013-04-29 17:29:00,
2013-04-29 12:30:00,71.0,58.6,29.62,SE,137,5.0,8.0,65,0.00,,,0.00,905,Wunderground v.1.15,2013-04-29 17:30:00,
2013-04-29 12:32:00,70.9,58.5,29.62,SE,134,5.0,8.0,65,0.00,,,0.00,912,Wunderground v.1.15,2013-04-29 17:32:00,
2013-04-29 12:33:00,70.8,58.4,29.62,South,189,4.0,8.0,65,0.00,,,0.00,916,Wunderground v.1.15,2013-04-29 17:33:00,
2013-04-29 12:34:00,71.1,59.2,29.62,SSE,162,7.0,8.0,66,0.00,,,0.00,916,Wunderground v.1.15,2013-04-29 17:34:00,
2013-04-29 12:35:00,71.0,58.2,29.62,SE,139,6.0,8.0,64,0.00,,,0.00,921,Wunderground v.1.15,2013-04-29 17:35:00,
2013-04-29 12:37:00,70.9,59.4,29.62,SSW,197,5.0,8.0,67,0.00,,,0.00,921,Wunderground v.1.15,2013-04-29 17:37:00,
2013-04-29 12:39:00,71.1,59.2,29.62,SSW,206,0.0,8.0,66,0.00,,,0.00,930,Wunderground v.1.15,2013-04-29 17:39:00,
2013-04-29 12:40:00,71.2,59.3,29.62,East,90,6.0,6.0,66,0.00,,,0.00,923,Wunderground v.1.15,2013-04-29 17:40:00,
2013-04-29 12:42:00,71.2,60.1,29.62,SSE,154,8.0,8.0,68,0.00,,,0.00,789,Wunderground v.1.15,2013-04-29 17:42:00,
2013-04-29 12:44:00,71.2,59.3,29.62,SE,136,5.0,8.0,66,0.00,,,0.00,744,Wunderground v.1.15,2013-04-29 17:44:00,
2013-04-29 12:45:00,71.3,58.5,29.62,South,181,7.0,8.0,64,0.00,,,0.00,775,Wunderground v.1.15,2013-04-29 17:45:00,
2013-04-29 12:47:00,71.5,58.2,29.62,South,169,2.0,8.0,63,0.00,,,0.00,526,Wunderground v.1.15,2013-04-29 17:47:00,
2013-04-29 12:48:00,71.3,58.5,29.62,South,169,1.0,8.0,64,0.00,,,0.00,526,Wunderground v.1.15,2013-04-29 17:48:00,
2013-04-29 12:50:00,70.6,58.3,29.62,SSE,163,4.0,8.0,65,0.00,,,0.00,526,Wunderground v.1.15,2013-04-29 17:50:00,
2013-04-29 12:53:00,70.8,58.4,29.62,SSE,152,2.0,7.0,65,0.00,,,0.00,842,Wunderground v.1.15,2013-04-29 17:53:00,
2013-04-29 12:55:00,71.0,58.6,29.62,SSW,199,5.0,7.0,65,0.00,,,0.00,837,Wunderground v.1.15,2013-04-29 17:55:00,
2013-04-29 12:56:00,71.4,59.0,29.62,South,184,5.0,7.0,65,0.00,,,0.00,837,Wunderground v.1.15,2013-04-29 17:56:00,
2013-04-29 12:59:00,71.0,59.5,29.62,SSE,150,6.0,7.0,67,0.00,,,0.00,835,Wunderground v.1.15,2013-04-29 17:59:00,
2013-04-29 13:01:00,71.1,58.3,29.61,South,172,1.0,5.0,64,0.00,,,0.00,526,Wunderground v.1.15,2013-04-29 18:01:00,
2013-04-29 13:02:00,70.8,58.4,29.61,SSW,207,3.0,5.0,65,0.00,,,0.00,526,Wunderground v.1.15,2013-04-29 18:02:00,
2013-04-29 13:03:00,70.8,58.4,29.61,South,188,4.0,6.0,65,0.00,,,0.00,965,Wunderground v.1.15,2013-04-29 18:03:00,
2013-04-29 13:04:00,71.1,59.6,29.61,SSW,195,7.0,7.0,67,0.00,,,0.00,962,Wunderground v.1.15,2013-04-29 18:04:00,
2013-04-29 13:06:00,71.9,59.5,29.61,SSE,167,8.0,8.0,65,0.00,,,0.00,962,Wunderground v.1.15,2013-04-29 18:06:00,
2013-04-29 13:08:00,72.0,58.7,29.61,SE,140,8.0,12.0,63,0.00,,,0.00,969,Wunderground v.1.15,2013-04-29 18:08:00,
2013-04-29 13:09:00,71.9,58.2,29.61,SSE,167,5.0,12.0,62,0.00,,,0.00,962,Wunderground v.1.15,2013-04-29 18:09:00,
2013-04-29 13:12:00,72.0,58.7,29.61,SSW,195,0.0,7.0,63,0.00,,,0.00,926,Wunderground v.1.15,2013-04-29 18:12:00,
2013-04-29 13:14:00,71.9,59.5,29.61,SE,132,8.0,8.0,65,0.00,,,0.00,905,Wunderground v.1.15,2013-04-29 18:14:00,
2013-04-29 13:17:00,72.5,59.2,29.61,SE,129,3.0,8.0,63,0.00,,,0.00,831,Wunderground v.1.15,2013-04-29 18:17:00,
2013-04-29 13:18:00,72.2,58.0,29.61,SE,142,7.0,8.0,61,0.00,,,0.00,837,Wunderground v.1.15,2013-04-29 18:18:00,
2013-04-29 13:19:00,72.2,59.3,29.61,SE,133,5.0,8.0,64,0.00,,,0.00,837,Wunderground v.1.15,2013-04-29 18:19:00,
2013-04-29 13:24:00,72.7,58.5,29.61,SSE,155,13.0,13.0,61,0.00,,,0.00,763,Wunderground v.1.15,2013-04-29 18:24:00,
2013-04-29 13:25:00,72.8,59.0,29.61,SSE,147,9.0,13.0,62,0.00,,,0.00,763,Wunderground v.1.15,2013-04-29 18:25:00,
2013-04-29 13:26:00,72.8,59.0,29.61,SE,138,10.0,13.0,62,0.00,,,0.00,823,Wunderground v.1.15,2013-04-29 18:26:00,
2013-04-29 13:29:00,72.7,58.5,29.60,SE,138,8.0,13.0,61,0.00,,,0.00,772,Wunderground v.1.15,2013-04-29 18:29:00,
2013-04-29 13:30:00,72.6,58.4,29.61,SE,131,7.0,13.0,61,0.00,,,0.00,772,Wunderground v.1.15,2013-04-29 18:30:00,
2013-04-29 13:31:00,72.4,59.1,29.60,ESE,107,2.0,7.0,63,0.00,,,0.00,772,Wunderground v.1.15,2013-04-29 18:31:00,
2013-04-29 13:32:00,72.2,58.9,29.60,ESE,111,8.0,8.0,63,0.00,,,0.00,856,Wunderground v.1.15,2013-04-29 18:32:00,
2013-04-29 13:34:00,72.3,59.4,29.60,SE,125,5.0,11.0,64,0.00,,,0.00,860,Wunderground v.1.15,2013-04-29 18:34:00,
2013-04-29 13:35:00,72.3,59.4,29.59,ESE,108,4.0,11.0,64,0.00,,,0.00,912,Wunderground v.1.15,2013-04-29 18:35:00,
2013-04-29 13:37:00,72.2,59.3,29.59,South,175,6.0,11.0,64,0.00,,,0.00,1005,Wunderground v.1.15,2013-04-29 18:37:00,
2013-04-29 13:38:00,72.4,60.0,29.59,SSW,209,6.0,11.0,65,0.00,,,0.00,1005,Wunderground v.1.15,2013-04-29 18:38:00,
2013-04-29 13:40:00,72.9,60.0,29.59,SE,135,5.0,5.0,64,0.00,,,0.00,998,Wunderground v.1.15,2013-04-29 18:40:00,
2013-04-29 13:41:00,73.0,60.1,29.59,ESE,114,8.0,8.0,64,0.00,,,0.00,998,Wunderground v.1.15,2013-04-29 18:41:00,
2013-04-29 13:42:00,73.4,59.1,29.59,South,190,5.0,10.0,61,0.00,,,0.00,916,Wunderground v.1.15,2013-04-29 18:42:00,
2013-04-29 13:43:00,73.5,59.2,29.59,SSW,192,3.0,10.0,61,0.00,,,0.00,916,Wunderground v.1.15,2013-04-29 18:43:00,
2013-04-29 13:44:00,73.4,59.6,29.59,SSW,199,3.0,10.0,62,0.00,,,0.00,895,Wunderground v.1.15,2013-04-29 18:44:00,
2013-04-29 13:47:00,73.2,59.8,29.59,South,180,5.0,10.0,63,0.00,,,0.00,956,Wunderground v.1.15,2013-04-29 18:47:00,
2013-04-29 13:48:00,73.4,59.6,29.59,ESE,107,8.0,10.0,62,0.00,,,0.00,956,Wunderground v.1.15,2013-04-29 18:48:00,
2013-04-29 13:49:00,73.7,60.8,29.59,ESE,105,3.0,10.0,64,0.00,,,0.00,956,Wunderground v.1.15,2013-04-29 18:49:00,
2013-04-29 13:51:00,74.2,61.2,29.59,SE,128,6.0,14.0,64,0.00,,,0.00,946,Wunderground v.1.15,2013-04-29 18:51:00,
2013-04-29 13:53:00,74.0,60.6,29.58,SE,132,7.0,14.0,63,0.00,,,0.00,940,Wunderground v.1.15,2013-04-29 18:53:00,
2013-04-29 13:55:00,73.6,59.8,29.59,ESE,112,2.0,14.0,62,0.00,,,0.00,935,Wunderground v.1.15,2013-04-29 18:55:00,
2013-04-29 13:56:00,73.5,60.1,29.59,ESE,120,7.0,14.0,63,0.00,,,0.00,942,Wunderground v.1.15,2013-04-29 18:56:00,
2013-04-29 13:57:00,73.7,59.9,29.59,SSE,158,9.0,14.0,62,0.00,,,0.00,939,Wunderground v.1.15,2013-04-29 18:57:00,
2013-04-29 14:00:00,74.3,60.0,29.58,ESE,123,7.0,7.0,61,0.00,,,0.00,925,Wunderground v.1.15,2013-04-29 19:00:00,
2013-04-29 14:01:00,74.4,60.5,29.59,ESE,118,7.0,7.0,62,0.00,,,0.00,933,Wunderground v.1.15,2013-04-29 19:01:00,
2013-04-29 14:02:00,74.7,59.9,29.59,SE,138,6.0,9.0,60,0.00,,,0.00,939,Wunderground v.1.15,2013-04-29 19:02:00,
2013-04-29 14:03:00,74.8,60.4,29.59,SE,133,2.0,9.0,61,0.00,,,0.00,939,Wunderground v.1.15,2013-04-29 19:03:00,
2013-04-29 14:05:00,75.3,62.3,29.59,South,181,6.0,9.0,64,0.00,,,0.00,928,Wunderground v.1.15,2013-04-29 19:05:00,
2013-04-29 14:08:00,75.3,61.4,29.59,SSW,210,8.0,9.0,62,0.00,,,0.00,875,Wunderground v.1.15,2013-04-29 19:08:00,
2013-04-29 14:09:00,75.7,60.4,29.59,SE,133,6.0,14.0,59,0.00,,,0.00,875,Wunderground v.1.15,2013-04-29 19:09:00,
2013-04-29 14:11:00,76.2,60.3,29.59,SSE,163,7.0,7.0,58,0.00,,,0.00,907,Wunderground v.1.15,2013-04-29 19:11:00,
2013-04-29 14:12:00,76.5,60.1,29.59,South,190,5.0,10.0,57,0.00,,,0.00,888,Wunderground v.1.15,2013-04-29 19:12:00,
2013-04-29 14:13:00,76.7,60.3,29.59,SSE,165,8.0,10.0,57,0.00,,,0.00,858,Wunderground v.1.15,2013-04-29 19:13:00,
2013-04-29 14:14:00,76.4,59.5,29.59,SE,146,5.0,10.0,56,0.00,,,0.00,858,Wunderground v.1.15,2013-04-29 19:14:00,
2013-04-29 14:17:00,76.2,62.2,29.58,SSE,148,8.0,10.0,62,0.00,,,0.00,833,Wunderground v.1.15,2013-04-29 19:17:00,
2013-04-29 14:18:00,76.3,59.9,29.58,South,178,2.0,10.0,57,0.00,,,0.00,756,Wunderground v.1.15,2013-04-29 19:18:00,
2013-04-29 14:19:00,76.0,59.7,29.58,SE,124,3.0,10.0,57,0.00,,,0.00,751,Wunderground v.1.15,2013-04-29 19:19:00,
2013-04-29 14:20:00,75.9,60.5,29.58,South,170,6.0,10.0,59,0.00,,,0.00,671,Wunderground v.1.15,2013-04-29 19:20:00,
2013-04-29 14:23:00,75.8,59.5,29.57,SE,137,8.0,11.0,57,0.00,,,0.00,580,Wunderground v.1.15,2013-04-29 19:23:00,
2013-04-29 14:25:00,75.8,59.5,29.58,SSE,159,5.0,11.0,57,0.00,,,0.00,677,Wunderground v.1.15,2013-04-29 19:25:00,
2013-04-29 14:26:00,75.9,60.1,29.58,South,178,4.0,11.0,58,0.00,,,0.00,677,Wunderground v.1.15,2013-04-29 19:26:00,
2013-04-29 14:29:00,75.5,59.2,29.58,SSW,194,5.0,11.0,57,0.00,,,0.00,830,Wunderground v.1.15,2013-04-29 19:29:00,
2013-04-29 14:30:00,75.9,60.1,29.58,SSE,167,3.0,5.0,58,0.00,,,0.00,633,Wunderground v.1.15,2013-04-29 19:30:00,
2013-04-29 14:31:00,76.1,60.2,29.58,South,169,4.0,7.0,58,0.00,,,0.00,633,Wunderground v.1.15,2013-04-29 19:31:00,
2013-04-29 14:32:00,76.2,60.3,29.58,SE,142,0.0,7.0,58,0.00,,,0.00,578,Wunderground v.1.15,2013-04-29 19:32:00,
2013-04-29 14:34:00,75.7,59.9,29.58,SSE,166,2.0,7.0,58,0.00,,,0.00,436,Wunderground v.1.15,2013-04-29 19:34:00,
2013-04-29 14:35:00,75.6,59.8,29.58,ESE,117,7.0,7.0,58,0.00,,,0.00,436,Wunderground v.1.15,2013-04-29 19:35:00,
2013-04-29 14:36:00,75.5,59.7,29.58,ESE,117,5.0,8.0,58,0.00,,,0.00,436,Wunderground v.1.15,2013-04-29 19:36:00,
2013-04-29 14:37:00,75.3,59.5,29.58,SSE,165,7.0,8.0,58,0.00,,,0.00,413,Wunderground v.1.15,2013-04-29 19:37:00,
2013-04-29 14:40:00,75.7,59.9,29.58,South,187,6.0,6.0,58,0.00,,,0.00,387,Wunderground v.1.15,2013-04-29 19:40:00,
2013-04-29 14:41:00,75.8,59.0,29.58,South,186,4.0,9.0,56,0.00,,,0.00,376,Wunderground v.1.15,2013-04-29 19:41:00,
2013-04-29 14:42:00,75.7,58.9,29.58,South,187,5.0,9.0,56,0.00,,,0.00,371,Wunderground v.1.15,2013-04-29 19:42:00,
2013-04-29 14:43:00,75.4,58.6,29.57,South,178,2.0,9.0,56,0.00,,,0.00,376,Wunderground v.1.15,2013-04-29 19:43:00,
2013-04-29 14:46:00,75.1,60.3,29.57,South,178,4.0,9.0,60,0.00,,,0.00,339,Wunderground v.1.15,2013-04-29 19:46:00,
2013-04-29 14:48:00,75.2,59.4,29.58,SSW,200,6.0,9.0,58,0.00,,,0.00,304,Wunderground v.1.15,2013-04-29 19:48:00,
2013-04-29 14:49:00,75.3,59.5,29.58,South,188,4.0,9.0,58,0.00,,,0.00,306,Wunderground v.1.15,2013-04-29 19:49:00,
2013-04-29 14:50:00,75.0,59.2,29.58,South,188,0.0,4.0,58,0.00,,,0.00,320,Wunderground v.1.15,2013-04-29 19:50:00,
2013-04-29 14:52:00,74.8,59.5,29.57,ESE,123,3.0,4.0,59,0.00,,,0.00,327,Wunderground v.1.15,2013-04-29 19:52:00,
2013-04-29 14:53:00,75.1,59.8,29.57,SE,134,7.0,7.0,59,0.00,,,0.00,341,Wunderground v.1.15,2013-04-29 19:53:00,
2013-04-29 14:54:00,75.1,59.8,29.57,SSE,151,7.0,7.0,59,0.00,,,0.00,353,Wunderground v.1.15,2013-04-29 19:54:00,
2013-04-29 14:57:00,75.3,60.0,29.57,SE,127,3.0,7.0,59,0.00,,,0.00,341,Wunderground v.1.15,2013-04-29 19:57:00,
2013-04-29 14:59:00,75.1,60.3,29.56,SE,146,3.0,7.0,60,0.00,,,0.00,313,Wunderground v.1.15,2013-04-29 19:59:00,
2013-04-29 15:00:00,75.2,59.9,29.56,SE,146,4.0,7.0,59,0.00,,,0.00,306,Wunderground v.1.15,2013-04-29 20:00:00,
2013-04-29 15:03:00,74.9,60.1,29.56,ESE,107,5.0,5.0,60,0.00,,,0.00,285,Wunderground v.1.15,2013-04-29 20:03:00,
2013-04-29 15:05:00,74.7,59.4,29.56,ESE,107,0.0,5.0,59,0.00,,,0.00,272,Wunderground v.1.15,2013-04-29 20:05:00,
2013-04-29 15:09:00,74.9,60.1,29.57,SE,126,3.0,5.0,60,0.00,,,0.00,315,Wunderground v.1.15,2013-04-29 20:09:00,
2013-04-29 15:10:00,74.9,60.1,29.56,ESE,121,4.0,5.0,60,0.00,,,0.00,315,Wunderground v.1.15,2013-04-29 20:10:00,
2013-04-29 15:11:00,74.9,60.1,29.57,ESE,120,3.0,3.0,60,0.00,,,0.00,315,Wunderground v.1.15,2013-04-29 20:11:00,
2013-04-29 15:12:00,75.1,60.3,29.56,SSE,164,4.0,6.0,60,0.00,,,0.00,315,Wunderground v.1.15,2013-04-29 20:12:00,
2013-04-29 15:13:00,75.2,59.9,29.56,SSE,167,4.0,6.0,59,0.00,,,0.00,564,Wunderground v.1.15,2013-04-29 20:13:00,
2013-04-29 15:16:00,75.8,60.0,29.56,SSE,163,5.0,7.0,58,0.00,,,0.00,527,Wunderground v.1.15,2013-04-29 20:16:00,
2013-04-29 15:17:00,76.1,60.2,29.56,ESE,115,4.0,7.0,58,0.00,,,0.00,538,Wunderground v.1.15,2013-04-29 20:17:00,
2013-04-29 15:18:00,76.1,60.2,29.56,SE,126,4.0,7.0,58,0.00,,,0.00,592,Wunderground v.1.15,2013-04-29 20:18:00,
2013-04-29 15:20:00,76.2,60.8,29.56,ESE,107,5.0,7.0,59,0.00,,,0.00,605,Wunderground v.1.15,2013-04-29 20:20:00,
2013-04-29 15:21:00,76.2,60.8,29.56,SSE,155,3.0,5.0,59,0.00,,,0.00,749,Wunderground v.1.15,2013-04-29 20:21:00,
2013-04-29 15:22:00,76.5,61.1,29.56,SE,136,11.0,11.0,59,0.00,,,0.00,682,Wunderground v.1.15,2013-04-29 20:22:00,
2013-04-29 15:23:00,76.7,61.3,29.56,SE,137,7.0,11.0,59,0.00,,,0.00,622,Wunderground v.1.15,2013-04-29 20:23:00,
2013-04-29 15:24:00,76.9,61.0,29.56,South,187,5.0,11.0,58,0.00,,,0.00,559,Wunderground v.1.15,2013-04-29 20:24:00,
2013-04-29 15:26:00,76.8,59.9,29.56,SSW,198,3.0,11.0,56,0.00,,,0.00,559,Wunderground v.1.15,2013-04-29 20:26:00,
2013-04-29 15:28:00,76.7,60.8,29.56,SE,144,5.0,11.0,58,0.00,,,0.00,374,Wunderground v.1.15,2013-04-29 20:28:00,
2013-04-29 15:29:00,76.6,60.2,29.55,SSE,156,3.0,11.0,57,0.00,,,0.00,357,Wunderground v.1.15,2013-04-29 20:29:00,
2013-04-29 15:31:00,76.6,60.2,29.55,SE,126,4.0,7.0,57,0.00,,,0.00,355,Wunderground v.1.15,2013-04-29 20:31:00,
2013-04-29 15:32:00,76.9,60.5,29.55,SSW,192,3.0,7.0,57,0.00,,,0.00,352,Wunderground v.1.15,2013-04-29 20:32:00,
2013-04-29 15:33:00,76.9,60.0,29.55,South,182,2.0,7.0,56,0.00,,,0.00,352,Wunderground v.1.15,2013-04-29 20:33:00,
2013-04-29 15:36:00,77.0,60.1,29.55,South,186,5.0,7.0,56,0.00,,,0.00,295,Wunderground v.1.15,2013-04-29 20:36:00,
2013-04-29 15:37:00,77.2,60.3,29.55,SSE,149,4.0,7.0,56,0.00,,,0.00,292,Wunderground v.1.15,2013-04-29 20:37:00,
2013-04-29 15:38:00,77.1,59.7,29.55,SE,125,3.0,7.0,55,0.00,,,0.00,294,Wunderground v.1.15,2013-04-29 20:38:00,
2013-04-29 15:39:00,77.1,60.7,29.55,SSE,149,3.0,7.0,57,0.00,,,0.00,294,Wunderground v.1.15,2013-04-29 20:39:00,
2013-04-29 15:42:00,77.0,60.1,29.55,SSW,210,3.0,4.0,56,0.00,,,0.00,301,Wunderground v.1.15,2013-04-29 20:42:00,
2013-04-29 15:44:00,77.1,59.7,29.55,SSW,198,3.0,4.0,55,0.00,,,0.00,299,Wunderground v.1.15,2013-04-29 20:44:00,
2013-04-29 15:48:00,77.0,60.1,29.55,SSE,161,0.0,4.0,56,0.00,,,0.00,302,Wunderground v.1.15,2013-04-29 20:48:00,
2013-04-29 15:49:00,76.9,60.5,29.55,South,175,4.0,5.0,57,0.00,,,0.00,302,Wunderground v.1.15,2013-04-29 20:49:00,
2013-04-29 15:50:00,76.9,60.5,29.55,SSE,148,5.0,5.0,57,0.00,,,0.00,306,Wunderground v.1.15,2013-04-29 20:50:00,
2013-04-29 15:53:00,76.7,60.3,29.55,ESE,114,3.0,4.0,57,0.00,,,0.00,330,Wunderground v.1.15,2013-04-29 20:53:00,
2013-04-29 15:55:00,76.7,60.8,29.55,ESE,109,5.0,5.0,58,0.00,,,0.00,352,Wunderground v.1.15,2013-04-29 20:55:00,
2013-04-29 15:56:00,76.8,60.9,29.54,ESE,113,3.0,5.0,58,0.00,,,0.00,352,Wunderground v.1.15,2013-04-29 20:56:00,
2013-04-29 15:58:00,77.1,60.2,29.54,South,186,4.0,5.0,56,0.00,,,0.00,383,Wunderground v.1.15,2013-04-29 20:58:00,
2013-04-29 16:01:00,77.5,60.6,29.54,SSE,154,6.0,6.0,56,0.00,,,0.00,334,Wunderground v.1.15,2013-04-29 21:01:00,
2013-04-29 16:02:00,77.7,60.8,29.54,SE,145,7.0,7.0,56,0.00,,,0.00,332,Wunderground v.1.15,2013-04-29 21:02:00,
2013-04-29 16:03:00,77.8,60.8,29.54,ESE,117,4.0,7.0,56,0.00,,,0.00,332,Wunderground v.1.15,2013-04-29 21:03:00,
2013-04-29 16:04:00,77.8,60.8,29.54,SE,132,2.0,7.0,56,0.00,,,0.00,380,Wunderground v.1.15,2013-04-29 21:04:00,
2013-04-29 16:07:00,77.7,60.2,29.53,ESE,122,2.0,7.0,55,0.00,,,0.00,550,Wunderground v.1.15,2013-04-29 21:07:00,
2013-04-29 16:08:00,77.7,60.8,29.53,ESE,111,4.0,7.0,56,0.00,,,0.00,550,Wunderground v.1.15,2013-04-29 21:08:00,
2013-04-29 16:09:00,77.8,60.8,29.53,East,96,6.0,8.0,56,0.00,,,0.00,589,Wunderground v.1.15,2013-04-29 21:09:00,
2013-04-29 16:10:00,77.8,60.8,29.53,East,96,2.0,8.0,56,0.00,,,0.00,476,Wunderground v.1.15,2013-04-29 21:10:00,
2013-04-29 16:14:00,77.9,62.4,29.53,East,82,5.0,5.0,59,0.00,,,0.00,624,Wunderground v.1.15,2013-04-29 21:14:00,
2013-04-29 16:15:00,78.0,62.5,29.53,East,88,6.0,6.0,59,0.00,,,0.00,770,Wunderground v.1.15,2013-04-29 21:15:00,
2013-04-29 16:19:00,78.5,60.5,29.53,ESE,113,4.0,7.0,54,0.00,,,0.00,715,Wunderground v.1.15,2013-04-29 21:19:00,
2013-04-29 16:20:00,78.7,61.2,29.53,ESE,123,9.0,9.0,55,0.00,,,0.00,622,Wunderground v.1.15,2013-04-29 21:20:00,
2013-04-29 16:22:00,79.1,61.0,29.53,SE,139,6.0,7.0,54,0.00,,,0.00,536,Wunderground v.1.15,2013-04-29 21:22:00,
2013-04-29 16:26:00,79.0,60.9,29.53,SSE,151,4.0,7.0,54,0.00,,,0.00,339,Wunderground v.1.15,2013-04-29 21:26:00,
2013-04-29 16:27:00,79.3,60.7,29.53,SSE,147,3.0,7.0,53,0.00,,,0.00,257,Wunderground v.1.15,2013-04-29 21:27:00,
2013-04-29 16:29:00,79.6,60.4,29.52,South,172,5.0,7.0,52,0.00,,,0.00,250,Wunderground v.1.15,2013-04-29 21:29:00,
2013-04-29 16:31:00,79.8,60.6,29.52,SSE,160,7.0,8.0,52,0.00,,,0.00,244,Wunderground v.1.15,2013-04-29 21:31:00,
2013-04-29 16:33:00,79.8,59.5,29.52,South,180,2.0,8.0,50,0.00,,,0.00,244,Wunderground v.1.15,2013-04-29 21:33:00,
2013-04-29 16:34:00,79.6,59.9,29.53,SSW,200,4.0,8.0,51,0.00,,,0.00,250,Wunderground v.1.15,2013-04-29 21:34:00,
2013-04-29 16:37:00,79.3,59.6,29.53,SSE,168,8.0,9.0,51,0.00,,,0.00,330,Wunderground v.1.15,2013-04-29 21:37:00,
2013-04-29 16:38:00,79.4,59.7,29.53,SSE,159,7.0,9.0,51,0.00,,,0.00,330,Wunderground v.1.15,2013-04-29 21:38:00,
2013-04-29 16:39:00,79.6,59.9,29.53,SSE,168,9.0,9.0,51,0.00,,,0.00,454,Wunderground v.1.15,2013-04-29 21:39:00,
2013-04-29 16:41:00,79.6,59.3,29.52,South,188,3.0,7.0,50,0.00,,,0.00,304,Wunderground v.1.15,2013-04-29 21:41:00,
2013-04-29 16:43:00,79.6,60.4,29.52,SSW,202,5.0,7.0,52,0.00,,,0.00,313,Wunderground v.1.15,2013-04-29 21:43:00,
2013-04-29 16:45:00,79.9,60.2,29.52,SSW,193,10.0,10.0,51,0.00,,,0.00,329,Wunderground v.1.15,2013-04-29 21:45:00,
2013-04-29 16:46:00,80.0,59.1,29.52,South,190,5.0,10.0,49,0.00,,,0.00,362,Wunderground v.1.15,2013-04-29 21:46:00,
2013-04-29 16:49:00,80.0,60.2,29.52,South,184,8.0,10.0,51,0.00,,,0.00,403,Wunderground v.1.15,2013-04-29 21:49:00,
2013-04-29 16:50:00,80.1,59.8,29.52,SSW,196,7.0,7.0,50,0.00,,,0.00,294,Wunderground v.1.15,2013-04-29 21:50:00,
2013-04-29 16:51:00,80.0,59.7,29.52,SSW,196,6.0,7.0,50,0.00,,,0.00,294,Wunderground v.1.15,2013-04-29 21:51:00,
2013-04-29 16:54:00,79.7,60.0,29.51,SE,131,10.0,10.0,51,0.00,,,0.00,239,Wunderground v.1.15,2013-04-29 21:54:00,
2013-04-29 16:56:00,79.6,59.3,29.51,South,187,9.0,10.0,50,0.00,,,0.00,237,Wunderground v.1.15,2013-04-29 21:56:00,
2013-04-29 16:57:00,79.5,59.2,29.52,South,189,4.0,10.0,50,0.00,,,0.00,264,Wunderground v.1.15,2013-04-29 21:57:00,
2013-04-29 16:58:00,79.5,59.8,29.52,SSW,194,4.0,10.0,51,0.00,,,0.00,336,Wunderground v.1.15,2013-04-29 21:58:00,
2013-04-29 16:59:00,79.6,59.9,29.52,South,191,3.0,10.0,51,0.00,,,0.00,418,Wunderground v.1.15,2013-04-29 21:59:00,
2013-04-29 17:01:00,79.7,60.0,29.52,SSE,166,4.0,7.0,51,0.00,,,0.00,339,Wunderground v.1.15,2013-04-29 22:01:00,
2013-04-29 17:02:00,80.0,60.2,29.52,South,180,9.0,9.0,51,0.00,,,0.00,411,Wunderground v.1.15,2013-04-29 22:02:00,
2013-04-29 17:04:00,80.3,60.5,29.52,South,190,8.0,9.0,51,0.00,,,0.00,250,Wunderground v.1.15,2013-04-29 22:04:00,
2013-04-29 17:05:00,80.3,59.4,29.52,South,180,8.0,9.0,49,0.00,,,0.00,236,Wunderground v.1.15,2013-04-29 22:05:00,
2013-04-29 17:07:00,80.2,59.3,29.52,South,172,6.0,10.0,49,0.00,,,0.00,244,Wunderground v.1.15,2013-04-29 22:07:00,
2013-04-29 17:08:00,80.1,59.8,29.52,South,177,7.0,10.0,50,0.00,,,0.00,244,Wunderground v.1.15,2013-04-29 22:08:00,
2013-04-29 17:10:00,80.2,60.4,29.52,SSE,166,8.0,8.0,51,0.00,,,0.00,418,Wunderground v.1.15,2013-04-29 22:10:00,
2013-04-29 17:13:00,80.5,60.1,29.51,SSE,154,5.0,10.0,50,0.00,,,0.00,512,Wunderground v.1.15,2013-04-29 22:13:00,
2013-04-29 17:15:00,80.5,60.1,29.51,SSE,166,6.0,10.0,50,0.00,,,0.00,512,Wunderground v.1.15,2013-04-29 22:15:00,
2013-04-29 17:16:00,80.5,60.1,29.51,South,170,7.0,10.0,50,0.00,,,0.00,564,Wunderground v.1.15,2013-04-29 22:16:00,
2013-04-29 17:18:00,80.8,59.9,29.51,SSE,157,6.0,10.0,49,0.00,,,0.00,578,Wunderground v.1.15,2013-04-29 22:18:00,
2013-04-29 17:19:00,81.1,60.7,29.51,SE,134,6.0,10.0,50,0.00,,,0.00,564,Wunderground v.1.15,2013-04-29 22:19:00,
2013-04-29 17:20:00,81.1,60.7,29.52,SE,144,3.0,7.0,50,0.00,,,0.00,543,Wunderground v.1.15,2013-04-29 22:20:00,
2013-04-29 17:22:00,81.0,59.5,29.52,South,169,5.0,7.0,48,0.00,,,0.00,515,Wunderground v.1.15,2013-04-29 22:22:00,
2013-04-29 17:24:00,81.0,60.0,29.51,SE,125,6.0,10.0,49,0.00,,,0.00,504,Wunderground v.1.15,2013-04-29 22:24:00,
2013-04-29 17:25:00,81.1,59.6,29.51,SE,135,7.0,11.0,48,0.00,,,0.00,496,Wunderground v.1.15,2013-04-29 22:25:00,
2013-04-29 17:27:00,81.2,60.2,29.51,SSE,152,5.0,11.0,49,0.00,,,0.00,483,Wunderground v.1.15,2013-04-29 22:27:00,
2013-04-29 17:28:00,81.2,60.2,29.51,SE,140,8.0,11.0,49,0.00,,,0.00,478,Wunderground v.1.15,2013-04-29 22:28:00,
2013-04-29 17:29:00,81.2,60.2,29.51,South,174,7.0,11.0,49,0.00,,,0.00,473,Wunderground v.1.15,2013-04-29 22:29:00,
2013-04-29 17:31:00,81.2,60.2,29.51,South,170,5.0,10.0,49,0.00,,,0.00,459,Wunderground v.1.15,2013-04-29 22:31:00,
2013-04-29 17:34:00,81.1,59.6,29.51,SE,140,9.0,10.0,48,0.00,,,0.00,448,Wunderground v.1.15,2013-04-29 22:34:00,
2013-04-29 17:35:00,81.2,59.6,29.51,SSE,153,5.0,10.0,48,0.00,,,0.00,445,Wunderground v.1.15,2013-04-29 22:35:00,
2013-04-29 17:36:00,81.2,59.6,29.51,SE,126,4.0,10.0,48,0.00,,,0.00,436,Wunderground v.1.15,2013-04-29 22:36:00,
2013-04-29 17:37:00,81.1,60.1,29.51,SSE,159,4.0,10.0,49,0.00,,,0.00,436,Wunderground v.1.15,2013-04-29 22:37:00,
2013-04-29 17:39:00,81.2,60.2,29.51,SSE,150,8.0,10.0,49,0.00,,,0.00,429,Wunderground v.1.15,2013-04-29 22:39:00,
2013-04-29 17:41:00,81.2,59.1,29.51,SE,142,6.0,8.0,47,0.00,,,0.00,417,Wunderground v.1.15,2013-04-29 22:41:00,
2013-04-29 17:42:00,81.1,59.6,29.51,SSE,151,5.0,8.0,48,0.00,,,0.00,411,Wunderground v.1.15,2013-04-29 22:42:00,
2013-04-29 17:43:00,81.2,60.2,29.51,ESE,120,7.0,10.0,49,0.00,,,0.00,408,Wunderground v.1.15,2013-04-29 22:43:00,
2013-04-29 17:44:00,81.1,59.6,29.51,SE,130,9.0,10.0,48,0.00,,,0.00,404,Wunderground v.1.15,2013-04-29 22:44:00,
2013-04-29 17:47:00,81.2,60.2,29.50,SSE,154,5.0,10.0,49,0.00,,,0.00,392,Wunderground v.1.15,2013-04-29 22:47:00,
2013-04-29 17:48:00,81.4,61.0,29.50,SE,132,8.0,10.0,50,0.00,,,0.00,390,Wunderground v.1.15,2013-04-29 22:48:00,
2013-04-29 17:49:00,81.4,59.8,29.50,SE,136,6.0,10.0,48,0.00,,,0.00,390,Wunderground v.1.15,2013-04-29 22:49:00,
2013-04-29 17:50:00,81.3,59.7,29.50,SE,135,9.0,10.0,48,0.00,,,0.00,387,Wunderground v.1.15,2013-04-29 22:50:00,
2013-04-29 17:52:00,81.3,59.7,29.51,SE,140,7.0,8.0,48,0.00,,,0.00,385,Wunderground v.1.15,2013-04-29 22:52:00,
2013-04-29 17:54:00,81.5,59.9,29.50,SSE,160,5.0,8.0,48,0.00,,,0.00,376,Wunderground v.1.15,2013-04-29 22:54:00,
2013-04-29 17:55:00,81.4,59.8,29.50,SSE,148,8.0,8.0,48,0.00,,,0.00,376,Wunderground v.1.15,2013-04-29 22:55:00,
2013-04-29 17:56:00,81.5,59.9,29.50,SSE,167,6.0,11.0,48,0.00,,,0.00,367,Wunderground v.1.15,2013-04-29 22:56:00,
2013-04-29 17:59:00,81.4,59.2,29.51,SSE,164,5.0,11.0,47,0.00,,,0.00,346,Wunderground v.1.15,2013-04-29 22:59:00,
2013-04-29 18:00:00,81.4,59.2,29.51,SSE,155,3.0,6.0,47,0.00,,,0.00,346,Wunderground v.1.15,2013-04-29 23:00:00,
2013-04-29 18:01:00,81.4,59.2,29.50,SSE,155,2.0,6.0,47,0.00,,,0.00,346,Wunderground v.1.15,2013-04-29 23:01:00,
2013-04-29 18:02:00,81.4,59.2,29.51,South,174,4.0,6.0,47,0.00,,,0.00,348,Wunderground v.1.15,2013-04-29 23:02:00,
2013-04-29 18:05:00,81.6,58.8,29.50,SSW,211,4.0,9.0,46,0.00,,,0.00,343,Wunderground v.1.15,2013-04-29 23:05:00,
2013-04-29 18:06:00,81.6,58.8,29.50,SSW,212,6.0,9.0,46,0.00,,,0.00,338,Wunderground v.1.15,2013-04-29 23:06:00,
2013-04-29 18:07:00,81.7,59.5,29.50,South,188,12.0,12.0,47,0.00,,,0.00,336,Wunderground v.1.15,2013-04-29 23:07:00,
2013-04-29 18:10:00,81.7,58.9,29.50,SSE,154,9.0,10.0,46,0.00,,,0.00,327,Wunderground v.1.15,2013-04-29 23:10:00,
2013-04-29 18:12:00,81.7,59.5,29.51,South,178,8.0,10.0,47,0.00,,,0.00,315,Wunderground v.1.15,2013-04-29 23:12:00,
2013-04-29 18:13:00,81.8,58.4,29.51,South,189,6.0,10.0,45,0.00,,,0.00,311,Wunderground v.1.15,2013-04-29 23:13:00,
2013-04-29 18:14:00,81.9,58.5,29.51,South,190,8.0,10.0,45,0.00,,,0.00,308,Wunderground v.1.15,2013-04-29 23:14:00,
2013-04-29 18:15:00,82.1,58.0,29.51,SSE,164,9.0,10.0,44,0.00,,,0.00,306,Wunderground v.1.15,2013-04-29 23:15:00,
2013-04-29 18:18:00,82.1,58.0,29.51,South,179,9.0,10.0,44,0.00,,,0.00,294,Wunderground v.1.15,2013-04-29 23:18:00,
2013-04-29 18:19:00,82.1,58.0,29.51,SSE,153,5.0,10.0,44,0.00,,,0.00,290,Wunderground v.1.15,2013-04-29 23:19:00,
2013-04-29 18:20:00,82.0,58.6,29.51,South,186,9.0,9.0,45,0.00,,,0.00,288,Wunderground v.1.15,2013-04-29 23:20:00,
2013-04-29 18:22:00,81.9,59.1,29.51,SW,215,10.0,11.0,46,0.00,,,0.00,283,Wunderground v.1.15,2013-04-29 23:22:00,
2013-04-29 18:23:00,82.0,57.9,29.51,SW,217,10.0,11.0,44,0.00,,,0.00,279,Wunderground v.1.15,2013-04-29 23:23:00,
2013-04-29 18:24:00,82.0,57.9,29.51,SSW,213,8.0,11.0,44,0.00,,,0.00,276,Wunderground v.1.15,2013-04-29 23:24:00,
2013-04-29 18:25:00,81.9,57.8,29.51,SW,225,9.0,11.0,44,0.00,,,0.00,274,Wunderground v.1.15,2013-04-29 23:25:00,
2013-04-29 18:27:00,81.7,58.9,29.51,South,182,9.0,11.0,46,0.00,,,0.00,264,Wunderground v.1.15,2013-04-29 23:27:00,
2013-04-29 18:29:00,81.7,58.9,29.51,South,186,6.0,11.0,46,0.00,,,0.00,260,Wunderground v.1.15,2013-04-29 23:29:00,
2013-04-29 18:32:00,81.7,58.9,29.50,South,185,5.0,8.0,46,0.00,,,0.00,241,Wunderground v.1.15,2013-04-29 23:32:00,
2013-04-29 18:33:00,81.7,58.9,29.50,South,184,7.0,10.0,46,0.00,,,0.00,241,Wunderground v.1.15,2013-04-29 23:33:00,
2013-04-29 18:34:00,81.7,58.9,29.50,South,170,7.0,10.0,46,0.00,,,0.00,241,Wunderground v.1.15,2013-04-29 23:34:00,
2013-04-29 18:35:00,81.6,59.4,29.50,South,188,10.0,13.0,47,0.00,,,0.00,237,Wunderground v.1.15,2013-04-29 23:35:00,
2013-04-29 18:38:00,81.2,59.1,29.50,SSE,168,9.0,13.0,47,0.00,,,0.00,223,Wunderground v.1.15,2013-04-29 23:38:00,
2013-04-29 18:39:00,81.1,59.0,29.50,South,171,9.0,13.0,47,0.00,,,0.00,223,Wunderground v.1.15,2013-04-29 23:39:00,
2013-04-29 18:40:00,81.1,59.0,29.50,SSE,161,9.0,9.0,47,0.00,,,0.00,221,Wunderground v.1.15,2013-04-29 23:40:00,
2013-04-29 18:41:00,81.0,59.5,29.50,SSE,163,9.0,9.0,48,0.00,,,0.00,221,Wunderground v.1.15,2013-04-29 23:41:00,
2013-04-29 18:44:00,80.8,58.7,29.50,South,169,7.0,13.0,47,0.00,,,0.00,211,Wunderground v.1.15,2013-04-29 23:44:00,
2013-04-29 18:45:00,80.7,58.6,29.50,SSE,164,8.0,13.0,47,0.00,,,0.00,202,Wunderground v.1.15,2013-04-29 23:45:00,
2013-04-29 18:47:00,80.6,58.5,29.50,South,178,9.0,13.0,47,0.00,,,0.00,199,Wunderground v.1.15,2013-04-29 23:47:00,
2013-04-29 18:48:00,80.6,58.5,29.50,SSE,158,7.0,13.0,47,0.00,,,0.00,193,Wunderground v.1.15,2013-04-29 23:48:00,
2013-04-29 18:50:00,80.6,58.5,29.50,SSE,151,9.0,13.0,47,0.00,,,0.00,188,Wunderground v.1.15,2013-04-29 23:50:00,
2013-04-29 18:51:00,80.5,58.4,29.50,SSE,157,9.0,11.0,47,0.00,,,0.00,179,Wunderground v.1.15,2013-04-29 23:51:00,
2013-04-29 18:53:00,80.4,58.3,29.50,SSE,168,9.0,11.0,47,0.00,,,0.00,169,Wunderground v.1.15,2013-04-29 23:53:00,
2013-04-29 18:54:00,80.3,58.2,29.50,South,180,9.0,13.0,47,0.00,,,0.00,167,Wunderground v.1.15,2013-04-29 23:54:00,
2013-04-29 18:58:00,80.3,58.8,29.50,South,173,8.0,13.0,48,0.00,,,0.00,158,Wunderground v.1.15,2013-04-29 23:58:00,
2013-04-29 18:59:00,80.3,58.8,29.50,South,184,6.0,13.0,48,0.00,,,0.00,151,Wunderground v.1.15,2013-04-29 23:59:00,
2013-04-29 19:00:00,80.3,58.8,29.50,South,180,6.0,13.0,48,0.00,,,0.00,148,Wunderground v.1.15,2013-04-30 00:00:00,
2013-04-29 19:04:00,80.1,58.6,29.50,South,173,6.0,9.0,48,0.00,,,0.00,130,Wunderground v.1.15,2013-04-30 00:04:00,
2013-04-29 19:05:00,80.1,59.2,29.50,SSE,162,6.0,9.0,49,0.00,,,0.00,128,Wunderground v.1.15,2013-04-30 00:05:00,
2013-04-29 19:06:00,80.0,59.1,29.50,SSE,155,7.0,9.0,49,0.00,,,0.00,127,Wunderground v.1.15,2013-04-30 00:06:00,
2013-04-29 19:10:00,79.6,58.8,29.50,South,172,8.0,10.0,49,0.00,,,0.00,111,Wunderground v.1.15,2013-04-30 00:10:00,
2013-04-29 19:11:00,79.6,58.8,29.50,SSE,161,10.0,10.0,49,0.00,,,0.00,109,Wunderground v.1.15,2013-04-30 00:11:00,
2013-04-29 19:13:00,79.5,59.2,29.49,SSE,154,8.0,10.0,50,0.00,,,0.00,102,Wunderground v.1.15,2013-04-30 00:13:00,
2013-04-29 19:16:00,79.3,59.0,29.49,SSE,164,6.0,10.0,50,0.00,,,0.00,91,Wunderground v.1.15,2013-04-30 00:16:00,
2013-04-29 19:17:00,79.3,59.0,29.49,SSE,153,5.0,10.0,50,0.00,,,0.00,90,Wunderground v.1.15,2013-04-30 00:17:00,
2013-04-29 19:18:00,79.2,59.0,29.49,SSE,157,4.0,10.0,50,0.00,,,0.00,86,Wunderground v.1.15,2013-04-30 00:18:00,
2013-04-29 19:19:00,79.2,59.0,29.49,South,175,6.0,10.0,50,0.00,,,0.00,86,Wunderground v.1.15,2013-04-30 00:19:00,
2013-04-29 19:22:00,78.9,59.2,29.49,SSE,159,4.0,7.0,51,0.00,,,0.00,69,Wunderground v.1.15,2013-04-30 00:22:00,
2013-04-29 19:23:00,78.9,59.2,29.49,SSE,161,4.0,7.0,51,0.00,,,0.00,63,Wunderground v.1.15,2013-04-30 00:23:00,
2013-04-29 19:24:00,78.8,59.1,29.49,SSE,158,4.0,7.0,51,0.00,,,0.00,62,Wunderground v.1.15,2013-04-30 00:24:00,
2013-04-29 19:25:00,78.7,59.0,29.49,SE,134,6.0,7.0,51,0.00,,,0.00,56,Wunderground v.1.15,2013-04-30 00:25:00,
2013-04-29 19:26:00,78.6,59.0,29.49,SE,146,6.0,8.0,51,0.00,,,0.00,56,Wunderground v.1.15,2013-04-30 00:26:00,
2013-04-29 19:27:00,78.5,59.4,29.49,SSE,148,9.0,9.0,52,0.00,,,0.00,56,Wunderground v.1.15,2013-04-30 00:27:00,
2013-04-29 19:29:00,78.5,59.4,29.49,SSE,158,4.0,9.0,52,0.00,,,0.00,56,Wunderground v.1.15,2013-04-30 00:29:00,
2013-04-29 19:30:00,78.3,59.2,29.49,SSE,159,5.0,5.0,52,0.00,,,0.00,56,Wunderground v.1.15,2013-04-30 00:30:00,
2013-04-29 19:31:00,78.3,59.2,29.49,SSE,159,4.0,5.0,52,0.00,,,0.00,56,Wunderground v.1.15,2013-04-30 00:31:00,
2013-04-29 19:33:00,78.1,59.0,29.49,SE,143,5.0,7.0,52,0.00,,,0.00,46,Wunderground v.1.15,2013-04-30 00:33:00,
2013-04-29 19:36:00,77.9,59.4,29.49,SSE,150,6.0,7.0,53,0.00,,,0.00,37,Wunderground v.1.15,2013-04-30 00:36:00,
2013-04-29 19:37:00,77.8,59.3,29.49,SE,128,6.0,7.0,53,0.00,,,0.00,33,Wunderground v.1.15,2013-04-30 00:37:00,
2013-04-29 19:39:00,77.7,59.2,29.49,SE,128,5.0,8.0,53,0.00,,,0.00,32,Wunderground v.1.15,2013-04-30 00:39:00,
2013-04-29 19:41:00,77.6,59.1,29.49,SE,135,6.0,8.0,53,0.00,,,0.00,30,Wunderground v.1.15,2013-04-30 00:41:00,
2013-04-29 19:42:00,77.6,59.1,29.49,SE,134,5.0,8.0,53,0.00,,,0.00,28,Wunderground v.1.15,2013-04-30 00:42:00,
2013-04-29 19:44:00,77.6,59.1,29.49,SE,134,4.0,8.0,53,0.00,,,0.00,28,Wunderground v.1.15,2013-04-30 00:44:00,
2013-04-29 19:46:00,77.5,59.0,29.49,SE,135,6.0,8.0,53,0.00,,,0.00,26,Wunderground v.1.15,2013-04-30 00:46:00,
2013-04-29 19:47:00,77.4,58.9,29.49,SE,130,5.0,8.0,53,0.00,,,0.00,23,Wunderground v.1.15,2013-04-30 00:47:00,
2013-04-29 19:49:00,77.3,58.8,29.49,SE,143,6.0,8.0,53,0.00,,,0.00,23,Wunderground v.1.15,2013-04-30 00:49:00,
2013-04-29 19:50:00,77.3,59.4,29.49,SE,132,6.0,8.0,54,0.00,,,0.00,21,Wunderground v.1.15,2013-04-30 00:50:00,
2013-04-29 19:52:00,77.1,59.2,29.49,SE,140,7.0,8.0,54,0.00,,,0.00,19,Wunderground v.1.15,2013-04-30 00:52:00,
2013-04-29 19:54:00,77.0,59.1,29.49,SE,134,7.0,9.0,54,0.00,,,0.00,18,Wunderground v.1.15,2013-04-30 00:54:00,
2013-04-29 19:55:00,77.0,59.1,29.49,SE,136,4.0,9.0,54,0.00,,,0.00,18,Wunderground v.1.15,2013-04-30 00:55:00,
2013-04-29 19:58:00,76.9,59.0,29.49,SE,136,5.0,9.0,54,0.00,,,0.00,14,Wunderground v.1.15,2013-04-30 00:58:00,
2013-04-29 19:59:00,76.8,59.4,29.49,SE,137,6.0,9.0,55,0.00,,,0.00,14,Wunderground v.1.15,2013-04-30 00:59:00,
2013-04-29 20:00:00,76.8,59.4,29.49,SE,134,8.0,9.0,55,0.00,,,0.00,12,Wunderground v.1.15,2013-04-30 01:00:00,
2013-04-29 20:01:00,76.6,59.2,29.49,SE,140,5.0,7.0,55,0.00,,,0.00,12,Wunderground v.1.15,2013-04-30 01:01:00,
2013-04-29 20:04:00,76.2,59.4,29.49,SE,136,6.0,7.0,56,0.00,,,0.00,9,Wunderground v.1.15,2013-04-30 01:04:00,
2013-04-29 20:05:00,76.2,59.4,29.49,SE,142,5.0,7.0,56,0.00,,,0.00,9,Wunderground v.1.15,2013-04-30 01:05:00,
2013-04-29 20:06:00,76.0,59.2,29.49,SE,144,6.0,7.0,56,0.00,,,0.00,7,Wunderground v.1.15,2013-04-30 01:06:00,
2013-04-29 20:07:00,75.8,59.0,29.49,SE,140,5.0,7.0,56,0.00,,,0.00,5,Wunderground v.1.15,2013-04-30 01:07:00,
2013-04-29 20:10:00,75.5,59.2,29.49,SE,140,4.0,7.0,57,0.00,,,0.00,0,Wunderground v.1.15,2013-04-30 01:10:00,
2013-04-29 20:11:00,75.3,59.0,29.49,SE,144,4.0,6.0,57,0.00,,,0.00,0,Wunderground v.1.15,2013-04-30 01:11:00,
2013-04-29 20:12:00,75.2,58.9,29.49,SE,140,4.0,7.0,57,0.00,,,0.00,0,Wunderground v.1.15,2013-04-30 01:12:00,
2013-04-29 20:16:00,75.0,59.2,29.49,SE,133,5.0,7.0,58,0.00,,,0.00,0,Wunderground v.1.15,2013-04-30 01:16:00,
2013-04-29 20:17:00,74.9,59.1,29.49,SE,134,5.0,7.0,58,0.00,,,0.00,0,Wunderground v.1.15,2013-04-30 01:17:00,
2013-04-29 20:18:00,74.8,59.0,29.49,SE,140,4.0,7.0,58,0.00,,,0.00,0,Wunderground v.1.15,2013-04-30 01:18:00,
2013-04-29 20:19:00,74.8,59.0,29.49,SE,139,5.0,7.0,58,0.00,,,0.00,0,Wunderground v.1.15,2013-04-30 01:19:00,
2013-04-29 20:23:00,74.6,59.3,29.49,SE,138,4.0,6.0,59,0.00,,,0.00,0,Wunderground v.1.15,2013-04-30 01:23:00,
2013-04-29 20:24:00,74.4,59.1,29.49,SE,134,5.0,6.0,59,0.00,,,0.00,0,Wunderground v.1.15,2013-04-30 01:24:00,
2013-04-29 20:25:00,74.4,59.1,29.49,SE,136,3.0,6.0,59,0.00,,,0.00,0,Wunderground v.1.15,2013-04-30 01:25:00,
2013-04-29 20:27:00,74.2,58.9,29.49,SE,138,3.0,6.0,59,0.00,,,0.00,0,Wunderground v.1.15,2013-04-30 01:27:00,
2013-04-29 20:28:00,74.1,59.3,29.49,SE,138,3.0,6.0,60,0.00,,,0.00,0,Wunderground v.1.15,2013-04-30 01:28:00,
2013-04-29 20:29:00,74.1,59.3,29.49,SE,138,2.0,6.0,60,0.00,,,0.00,0,Wunderground v.1.15,2013-04-30 01:29:00,
2013-04-29 20:30:00,74.0,59.2,29.49,SE,138,3.0,4.0,60,0.00,,,0.00,0,Wunderground v.1.15,2013-04-30 01:30:00,
2013-04-29 20:33:00,73.9,59.1,29.49,SE,126,3.0,5.0,60,0.00,,,0.00,0,Wunderground v.1.15,2013-04-30 01:33:00,
2013-04-29 20:34:00,73.9,59.1,29.49,SE,131,4.0,5.0,60,0.00,,,0.00,0,Wunderground v.1.15,2013-04-30 01:34:00,
2013-04-29 20:35:00,73.9,59.1,29.49,SE,132,5.0,5.0,60,0.00,,,0.00,0,Wunderground v.1.15,2013-04-30 01:35:00,
2013-04-29 20:37:00,74.0,59.2,29.49,SE,131,5.0,6.0,60,0.00,,,0.00,0,Wunderground v.1.15,2013-04-30 01:37:00,
2013-04-29 20:39:00,74.2,59.4,29.49,SE,132,4.0,7.0,60,0.00,,,0.00,0,Wunderground v.1.15,2013-04-30 01:39:00,
2013-04-29 20:41:00,74.3,59.5,29.49,SE,133,4.0,4.0,60,0.00,,,0.00,0,Wunderground v.1.15,2013-04-30 01:41:00,
2013-04-29 20:44:00,74.6,59.8,29.49,SE,136,5.0,6.0,60,0.00,,,0.00,0,Wunderground v.1.15,2013-04-30 01:44:00,
2013-04-29 20:45:00,74.5,59.7,29.49,SE,130,4.0,6.0,60,0.00,,,0.00,0,Wunderground v.1.15,2013-04-30 01:45:00,
2013-04-29 20:46:00,74.6,59.3,29.49,SE,138,5.0,7.0,59,0.00,,,0.00,0,Wunderground v.1.15,2013-04-30 01:46:00,
2013-04-29 20:48:00,74.6,59.3,29.49,SE,138,6.0,7.0,59,0.00,,,0.00,0,Wunderground v.1.15,2013-04-30 01:48:00,
2013-04-29 20:50:00,74.6,59.3,29.49,SE,138,5.0,5.0,59,0.00,,,0.00,0,Wunderground v.1.15,2013-04-30 01:50:00,
2013-04-29 20:51:00,74.6,59.3,29.49,SE,133,4.0,6.0,59,0.00,,,0.00,0,Wunderground v.1.15,2013-04-30 01:51:00,
2013-04-29 20:52:00,74.6,59.3,29.49,SE,144,4.0,6.0,59,0.00,,,0.00,0,Wunderground v.1.15,2013-04-30 01:52:00,
2013-04-29 20:56:00,74.4,59.6,29.49,SE,140,4.0,7.0,60,0.00,,,0.00,0,Wunderground v.1.15,2013-04-30 01:56:00,
2013-04-29 20:57:00,74.3,59.5,29.49,SE,139,5.0,7.0,60,0.00,,,0.00,0,Wunderground v.1.15,2013-04-30 01:57:00,
2013-04-29 20:58:00,74.3,59.5,29.49,SE,140,4.0,7.0,60,0.00,,,0.00,0,Wunderground v.1.15,2013-04-30 01:58:00,
2013-04-29 21:01:00,74.0,59.7,29.50,SSE,148,4.0,5.0,61,0.00,,,0.00,0,Wunderground v.1.15,2013-04-30 02:01:00,
2013-04-29 21:03:00,73.9,59.6,29.50,SSE,149,3.0,5.0,61,0.00,,,0.00,0,Wunderground v.1.15,2013-04-30 02:03:00,
2013-04-29 21:04:00,73.7,59.4,29.50,SSE,147,3.0,5.0,61,0.00,,,0.00,0,Wunderground v.1.15,2013-04-30 02:04:00,
2013-04-29 21:05:00,73.5,59.2,29.50,SSE,147,3.0,5.0,61,0.00,,,0.00,0,Wunderground v.1.15,2013-04-30 02:05:00,
2013-04-29 21:07:00,73.1,59.3,29.50,SSE,147,3.0,5.0,62,0.00,,,0.00,0,Wunderground v.1.15,2013-04-30 02:07:00,
2013-04-29 21:09:00,72.9,59.1,29.50,SSE,147,4.0,5.0,62,0.00,,,0.00,0,Wunderground v.1.15,2013-04-30 02:09:00,
2013-04-29 21:10:00,72.8,59.5,29.50,SSE,147,3.0,3.0,63,0.00,,,0.00,0,Wunderground v.1.15,2013-04-30 02:10:00,
2013-04-29 21:11:00,72.7,59.4,29.50,SSE,147,3.0,4.0,63,0.00,,,0.00,0,Wunderground v.1.15,2013-04-30 02:11:00,
2013-04-29 21:14:00,72.6,59.7,29.50,SE,146,3.0,6.0,64,0.00,,,0.00,0,Wunderground v.1.15,2013-04-30 02:14:00,
2013-04-29 21:16:00,72.6,59.7,29.50,SE,146,2.0,6.0,64,0.00,,,0.00,0,Wunderground v.1.15,2013-04-30 02:16:00,
2013-04-29 21:18:00,72.5,59.6,29.50,SE,129,4.0,6.0,64,0.00,,,0.00,0,Wunderground v.1.15,2013-04-30 02:18:00,
2013-04-29 21:20:00,72.6,59.7,29.50,SE,132,4.0,6.0,64,0.00,,,0.00,0,Wunderground v.1.15,2013-04-30 02:20:00,
2013-04-29 21:21:00,72.7,59.8,29.50,SE,132,5.0,6.0,64,0.00,,,0.00,0,Wunderground v.1.15,2013-04-30 02:21:00,
2013-04-29 21:22:00,72.7,59.8,29.50,SE,134,5.0,6.0,64,0.00,,,0.00,0,Wunderground v.1.15,2013-04-30 02:22:00,
2013-04-29 21:23:00,72.8,59.9,29.50,SE,136,4.0,6.0,64,0.00,,,0.00,0,Wunderground v.1.15,2013-04-30 02:23:00,
2013-04-29 21:25:00,72.8,59.9,29.50,SE,126,4.0,6.0,64,0.00,,,0.00,0,Wunderground v.1.15,2013-04-30 02:25:00,
2013-04-29 21:26:00,72.9,60.0,29.50,SE,140,7.0,7.0,64,0.00,,,0.00,0,Wunderground v.1.15,2013-04-30 02:26:00,
2013-04-29 21:27:00,73.0,60.1,29.50,SE,136,4.0,7.0,64,0.00,,,0.00,0,Wunderground v.1.15,2013-04-30 02:27:00,
2013-04-29 21:29:00,73.1,60.2,29.50,SE,136,7.0,7.0,64,0.00,,,0.00,0,Wunderground v.1.15,2013-04-30 02:29:00,
2013-04-29 21:30:00,73.1,60.2,29.49,SE,126,4.0,5.0,64,0.00,,,0.00,0,Wunderground v.1.15,2013-04-30 02:30:00,
2013-04-29 21:32:00,73.2,60.3,29.50,SE,131,7.0,7.0,64,0.00,,,0.00,0,Wunderground v.1.15,2013-04-30 02:32:00,
2013-04-29 21:33:00,73.2,60.3,29.50,SE,142,4.0,7.0,64,0.00,,,0.00,0,Wunderground v.1.15,2013-04-30 02:33:00,
2013-04-29 21:34:00,73.2,60.7,29.49,SE,135,5.0,7.0,65,0.00,,,0.00,0,Wunderground v.1.15,2013-04-30 02:34:00,
2013-04-29 21:37:00,73.3,60.8,29.50,SE,142,5.0,7.0,65,0.00,,,0.00,0,Wunderground v.1.15,2013-04-30 02:37:00,
2013-04-29 21:39:00,73.3,60.8,29.50,SE,134,7.0,7.0,65,0.00,,,0.00,0,Wunderground v.1.15,2013-04-30 02:39:00,
2013-04-29 21:40:00,73.3,60.4,29.50,SE,138,7.0,8.0,64,0.00,,,0.00,0,Wunderground v.1.15,2013-04-30 02:40:00,
2013-04-29 21:42:00,73.4,60.9,29.50,SE,134,3.0,6.0,65,0.00,,,0.00,0,Wunderground v.1.15,2013-04-30 02:42:00,
2013-04-29 21:43:00,73.4,60.9,29.49,SE,130,5.0,7.0,65,0.00,,,0.00,0,Wunderground v.1.15,2013-04-30 02:43:00,
2013-04-29 21:45:00,73.3,60.8,29.49,SE,137,6.0,7.0,65,0.00,,,0.00,0,Wunderground v.1.15,2013-04-30 02:45:00,
2013-04-29 21:46:00,73.3,60.8,29.49,SE,136,5.0,7.0,65,0.00,,,0.00,0,Wunderground v.1.15,2013-04-30 02:46:00,
2013-04-29 21:47:00,73.3,60.8,29.49,SE,140,4.0,7.0,65,0.00,,,0.00,0,Wunderground v.1.15,2013-04-30 02:47:00,
2013-04-29 21:49:00,73.3,60.8,29.49,SE,138,6.0,7.0,65,0.00,,,0.00,0,Wunderground v.1.15,2013-04-30 02:49:00,
2013-04-29 21:50:00,73.4,60.9,29.49,SE,136,5.0,7.0,65,0.00,,,0.00,0,Wunderground v.1.15,2013-04-30 02:50:00,
2013-04-29 21:52:00,73.4,60.9,29.49,SE,136,5.0,7.0,65,0.00,,,0.00,0,Wunderground v.1.15,2013-04-30 02:52:00,
2013-04-29 21:53:00,73.5,61.0,29.49,SE,144,6.0,7.0,65,0.00,,,0.00,0,Wunderground v.1.15,2013-04-30 02:53:00,
2013-04-29 21:54:00,73.5,61.0,29.49,ESE,114,7.0,7.0,65,0.00,,,0.00,0,Wunderground v.1.15,2013-04-30 02:54:00,
2013-04-29 21:56:00,73.5,61.0,29.49,SE,137,7.0,8.0,65,0.00,,,0.00,0,Wunderground v.1.15,2013-04-30 02:56:00,
2013-04-29 21:58:00,73.5,61.0,29.48,SE,138,5.0,8.0,65,0.00,,,0.00,0,Wunderground v.1.15,2013-04-30 02:58:00,
2013-04-29 21:59:00,73.5,61.0,29.48,SE,135,4.0,8.0,65,0.00,,,0.00,0,Wunderground v.1.15,2013-04-30 02:59:00,
2013-04-29 22:02:00,73.5,61.0,29.48,SE,141,7.0,8.0,65,0.00,,,0.00,0,Wunderground v.1.15,2013-04-30 03:02:00,
2013-04-29 22:03:00,73.6,61.1,29.48,SE,131,7.0,8.0,65,0.00,,,0.00,0,Wunderground v.1.15,2013-04-30 03:03:00,
2013-04-29 22:04:00,73.6,61.1,29.48,SE,126,4.0,8.0,65,0.00,,,0.00,0,Wunderground v.1.15,2013-04-30 03:04:00,
2013-04-29 22:06:00,73.6,61.1,29.48,SE,139,6.0,8.0,65,0.00,,,0.00,0,Wunderground v.1.15,2013-04-30 03:06:00,
2013-04-29 22:08:00,73.7,61.2,29.48,SE,128,6.0,8.0,65,0.00,,,0.00,0,Wunderground v.1.15,2013-04-30 03:08:00,
2013-04-29 22:09:00,73.7,61.2,29.48,SE,133,6.0,8.0,65,0.00,,,0.00,0,Wunderground v.1.15,2013-04-30 03:09:00,
2013-04-29 22:11:00,73.7,61.2,29.48,SE,145,7.0,9.0,65,0.00,,,0.00,0,Wunderground v.1.15,2013-04-30 03:11:00,
2013-04-29 22:13:00,73.7,61.2,29.48,SE,142,7.0,9.0,65,0.00,,,0.00,0,Wunderground v.1.15,2013-04-30 03:13:00,
2013-04-29 22:15:00,73.7,61.2,29.48,SE,130,5.0,9.0,65,0.00,,,0.00,0,Wunderground v.1.15,2013-04-30 03:15:00,
2013-04-29 22:16:00,73.6,61.1,29.48,SE,130,6.0,9.0,65,0.00,,,0.00,0,Wunderground v.1.15,2013-04-30 03:16:00,
2013-04-29 22:19:00,73.5,61.0,29.48,SE,132,7.0,10.0,65,0.00,,,0.00,0,Wunderground v.1.15,2013-04-30 03:19:00,
2013-04-29 22:20:00,73.5,61.0,29.48,SE,137,8.0,10.0,65,0.00,,,0.00,0,Wunderground v.1.15,2013-04-30 03:20:00,
2013-04-29 22:21:00,73.5,61.0,29.48,SE,137,7.0,12.0,65,0.00,,,0.00,0,Wunderground v.1.15,2013-04-30 03:21:00,
2013-04-29 22:22:00,73.5,61.0,29.48,SE,142,5.0,12.0,65,0.00,,,0.00,0,Wunderground v.1.15,2013-04-30 03:22:00,
2013-04-29 22:26:00,73.6,61.1,29.48,SE,133,7.0,12.0,65,0.00,,,0.00,0,Wunderground v.1.15,2013-04-30 03:26:00,
2013-04-29 22:27:00,73.6,61.5,29.48,SE,142,5.0,12.0,66,0.00,,,0.00,0,Wunderground v.1.15,2013-04-30 03:27:00,
2013-04-29 22:30:00,73.3,61.3,29.47,SE,144,7.0,12.0,66,0.00,,,0.00,0,Wunderground v.1.15,2013-04-30 03:30:00,
2013-04-29 22:33:00,72.9,61.3,29.47,SSE,149,9.0,10.0,67,0.00,,,0.00,0,Wunderground v.1.15,2013-04-30 03:33:00,
2013-04-29 22:34:00,72.8,61.2,29.47,SE,140,6.0,10.0,67,0.00,,,0.00,0,Wunderground v.1.15,2013-04-30 03:34:00,
2013-04-29 22:35:00,72.7,61.5,29.47,SE,142,9.0,10.0,68,0.00,,,0.00,0,Wunderground v.1.15,2013-04-30 03:35:00,
2013-04-29 22:36:00,72.6,61.4,29.47,SSE,155,10.0,10.0,68,0.00,,,0.00,0,Wunderground v.1.15,2013-04-30 03:36:00,
2013-04-29 22:39:00,72.5,61.3,29.48,SSE,148,9.0,13.0,68,0.00,,,0.00,0,Wunderground v.1.15,2013-04-30 03:39:00,
2013-04-29 22:40:00,72.4,61.2,29.48,SE,143,8.0,13.0,68,0.00,,,0.00,0,Wunderground v.1.15,2013-04-30 03:40:00,
2013-04-29 22:41:00,72.4,61.2,29.48,SE,135,10.0,10.0,68,0.00,,,0.00,0,Wunderground v.1.15,2013-04-30 03:41:00,
2013-04-29 22:42:00,72.3,61.1,29.48,SSE,149,9.0,10.0,68,0.00,,,0.00,0,Wunderground v.1.15,2013-04-30 03:42:00,
2013-04-29 22:44:00,72.2,61.5,29.47,SE,146,9.0,12.0,69,0.00,,,0.00,0,Wunderground v.1.15,2013-04-30 03:44:00,
2013-04-29 22:46:00,71.9,61.2,29.47,SE,137,11.0,12.0,69,0.00,,,0.00,0,Wunderground v.1.15,2013-04-30 03:46:00,
2013-04-29 22:47:00,71.8,61.9,29.47,SSE,147,9.0,12.0,71,0.00,,,0.00,0,Wunderground v.1.15,2013-04-30 03:47:00,
2013-04-29 22:49:00,71.6,62.1,29.47,SSE,163,8.0,12.0,72,0.00,,,0.00,0,Wunderground v.1.15,2013-04-30 03:49:00,
2013-04-29 22:52:00,71.3,62.2,29.46,SE,139,12.0,12.0,73,0.00,,,0.00,0,Wunderground v.1.15,2013-04-30 03:52:00,
2013-04-29 22:53:00,71.3,62.2,29.46,SE,143,10.0,12.0,73,0.00,,,0.00,0,Wunderground v.1.15,2013-04-30 03:53:00,
2013-04-29 22:54:00,71.2,62.1,29.46,SE,142,10.0,12.0,73,0.00,,,0.00,0,Wunderground v.1.15,2013-04-30 03:54:00,
2013-04-29 22:56:00,71.0,61.9,29.46,SE,140,10.0,12.0,73,0.00,,,0.00,0,Wunderground v.1.15,2013-04-30 03:56:00,
2013-04-29 22:57:00,71.0,62.3,29.46,SSE,148,7.0,12.0,74,0.00,,,0.00,0,Wunderground v.1.15,2013-04-30 03:57:00,
2013-04-29 22:59:00,70.9,62.2,29.46,SSE,155,8.0,12.0,74,0.00,,,0.00,0,Wunderground v.1.15,2013-04-30 03:59:00,
2013-04-29 23:00:00,70.9,62.2,29.46,SSE,155,10.0,12.0,74,0.00,,,0.00,0,Wunderground v.1.15,2013-04-30 04:00:00,
2013-04-29 23:01:00,70.9,62.2,29.46,SSE,168,9.0,13.0,74,0.00,,,0.00,0,Wunderground v.1.15,2013-04-30 04:01:00,
2013-04-29 23:02:00,70.9,62.2,29.46,SSE,153,13.0,13.0,74,0.00,,,0.00,0,Wunderground v.1.15,2013-04-30 04:02:00,
2013-04-29 23:06:00,71.0,62.3,29.45,SSE,147,12.0,15.0,74,0.00,,,0.00,0,Wunderground v.1.15,2013-04-30 04:06:00,
2013-04-29 23:07:00,71.1,62.4,29.45,SSE,166,12.0,15.0,74,0.00,,,0.00,0,Wunderground v.1.15,2013-04-30 04:07:00,
2013-04-29 23:08:00,71.2,62.5,29.45,SSE,163,15.0,15.0,74,0.00,,,0.00,0,Wunderground v.1.15,2013-04-30 04:08:00,
2013-04-29 23:13:00,71.0,62.7,29.45,SSE,165,12.0,15.0,75,0.00,,,0.00,0,Wunderground v.1.15,2013-04-30 04:13:00,
2013-04-29 23:14:00,70.9,62.6,29.45,South,172,11.0,15.0,75,0.00,,,0.00,0,Wunderground v.1.15,2013-04-30 04:14:00,
2013-04-29 23:19:00,70.5,62.9,29.46,SSW,203,16.0,23.0,77,0.00,,,0.00,0,Wunderground v.1.15,2013-04-30 04:19:00,
2013-04-29 23:20:00,70.4,63.2,29.46,SSW,199,12.0,14.0,78,0.00,,,0.01,0,Wunderground v.1.15,2013-04-30 04:20:00,
2013-04-29 23:22:00,69.6,62.4,29.46,SSW,203,19.0,25.0,78,0.00,,,0.01,0,Wunderground v.1.15,2013-04-30 04:22:00,
2013-04-29 23:24:00,68.5,61.0,29.46,South,185,22.0,29.0,77,0.18,,,0.02,0,Wunderground v.1.15,2013-04-30 04:24:00,
2013-04-29 23:25:00,67.8,61.4,29.45,South,180,22.0,29.0,80,0.18,,,0.02,0,Wunderground v.1.15,2013-04-30 04:25:00,
2013-04-29 23:28:00,67.6,61.6,29.45,South,177,11.0,29.0,81,0.11,,,0.02,0,Wunderground v.1.15,2013-04-30 04:28:00,
2013-04-29 23:30:00,67.8,62.1,29.45,South,184,14.0,17.0,82,0.08,,,0.02,0,Wunderground v.1.15,2013-04-30 04:30:00,
2013-04-29 23:34:00,68.8,62.4,29.46,South,181,8.0,17.0,80,0.05,,,0.02,0,Wunderground v.1.15,2013-04-30 04:34:00,
2013-04-29 23:35:00,69.0,62.6,29.46,SSW,194,8.0,17.0,80,0.05,,,0.02,0,Wunderground v.1.15,2013-04-30 04:35:00,
2013-04-29 23:37:00,69.2,62.8,29.46,South,188,7.0,17.0,80,0.04,,,0.02,0,Wunderground v.1.15,2013-04-30 04:37:00,
2013-04-29 23:40:00,69.2,62.8,29.46,South,181,11.0,11.0,80,0.00,,,0.02,0,Wunderground v.1.15,2013-04-30 04:40:00,
2013-04-29 23:41:00,69.2,62.8,29.46,SSE,163,10.0,11.0,80,0.00,,,0.02,0,Wunderground v.1.15,2013-04-30 04:41:00,
2013-04-29 23:43:00,69.2,62.8,29.45,South,180,11.0,17.0,80,0.00,,,0.02,0,Wunderground v.1.15,2013-04-30 04:43:00,
2013-04-29 23:45:00,69.4,63.0,29.45,SSE,161,11.0,17.0,80,0.00,,,0.02,0,Wunderground v.1.15,2013-04-30 04:45:00,
2013-04-29 23:46:00,69.6,63.2,29.46,South,169,9.0,17.0,80,0.00,,,0.02,0,Wunderground v.1.15,2013-04-30 04:46:00,
2013-04-29 23:49:00,69.9,63.4,29.46,South,175,11.0,17.0,80,0.00,,,0.02,0,Wunderground v.1.15,2013-04-30 04:49:00,
2013-04-29 23:51:00,69.8,63.3,29.46,SSE,167,7.0,11.0,80,0.00,,,0.02,0,Wunderground v.1.15,2013-04-30 04:51:00,
2013-04-29 23:52:00,69.8,63.3,29.46,South,172,9.0,12.0,80,0.00,,,0.02,0,Wunderground v.1.15,2013-04-30 04:52:00,
2013-04-29 23:53:00,69.8,63.3,29.46,South,173,11.0,12.0,80,0.00,,,0.02,0,Wunderground v.1.15,2013-04-30 04:53:00,
2013-04-29 23:55:00,69.7,63.3,29.46,South,184,7.0,14.0,80,0.00,,,0.02,0,Wunderground v.1.15,2013-04-30 04:55:00,
2013-04-29 23:56:00,69.6,63.5,29.46,SSE,167,5.0,14.0,81,0.00,,,0.02,0,Wunderground v.1.15,2013-04-30 04:56:00,
2013-04-29 23:59:00,69.3,63.2,29.46,SSE,160,7.0,14.0,81,0.00,,,0.00,0,Wunderground v.1.15,2013-04-30 04:59:00,